[[{"header":{"parameterUnit":"m.s-1","parameterCategory":1,"la1":30.6,"la2":29.2853,"lo1":-89.7004,"lo2":-87.6739,"dy":0.0162,"dx":0.0183,"nx":112,"ny":82,"refTime":"2023-10-02T12:00:00:Z","depth":0,"parameterNumber":2,"parameterNumberName":"U-component_of_WINDS"},"data":[0.0,0.0,0.0,0.0,0.0,0.0,0.0,0.0,0.0,0.0,0.0,0.0,0.0,0.0,0.0,0.0,0.0,0.0,0.0,0.0,0.0,0.0,0.0,0.0,0.0,0.0,0.0,0.0,0.0,0.0,0.0,0.0,0.0,0.0,0.0,0.0,0.0,0.0,0.0,0.0,0.0,0.0,0.0,0.0,0.0,0.0,0.0,0.0,0.0,0.0,0.0,0.0,0.0,0.0,0.0,0.0,0.0,0.0,0.0,0.0,0.0,0.0,0.0,0.0,0.0,0.0,0.0,0.0,0.0,0.0,0.0,0.0,0.0,0.0,0.0,0.0,0.0,0.0,0.0,0.0,0.0,0.0,0.0,0.0,0.0,0.0,0.0,0.0,0.0,0.0,-1.1249,-1.1284,-1.1305,-1.1305,-1.1305,-1.1305,-1.1295,-1.1252,0.0,0.0,0.0,0.0,0.0,0.0,0.0,0.0,0.0,0.0,0.0,0.0,0.0,0.0,0.0,0.0,0.0,0.0,0.0,0.0,0.0,0.0,0.0,0.0,0.0,0.0,0.0,0.0,0.0,0.0,0.0,0.0,0.0,0.0,0.0,0.0,0.0,0.0,0.0,0.0,0.0,0.0,0.0,0.0,0.0,0.0,0.0,0.0,0.0,0.0,0.0,0.0,0.0,0.0,0.0,0.0,0.0,0.0,0.0,0.0,0.0,0.0,0.0,0.0,0.0,0.0,0.0,0.0,0.0,0.0,0.0,0.0,0.0,0.0,0.0,0.0,0.0,0.0,0.0,0.0,0.0,0.0,0.0,0.0,0.0,0.0,0.0,0.0,0.0,0.0,0.0,0.0,0.0,0.0,0.0,0.0,0.0,0.0,0.0,0.0,0.0,0.0,0.0,0.0,-1.1938,-1.1348,-1.1305,-1.1305,-1.1305,-1.1305,-1.1219,-1.1047,0.0,0.0,0.0,0.0,0.0,0.0,0.0,0.0,0.0,0.0,0.0,0.0,0.0,0.0,0.0,0.0,0.0,0.0,0.0,0.0,0.0,0.0,0.0,0.0,0.0,0.0,0.0,0.0,0.0,0.0,0.0,0.0,0.0,0.0,0.0,0.0,0.0,0.0,0.0,0.0,0.0,0.0,0.0,0.0,0.0,0.0,0.0,0.0,0.0,0.0,0.0,0.0,0.0,0.0,0.0,0.0,0.0,0.0,0.0,0.0,0.0,0.0,0.0,0.0,0.0,0.0,0.0,0.0,0.0,0.0,0.0,0.0,0.0,0.0,0.0,0.0,0.0,0.0,0.0,0.0,0.0,0.0,0.0,0.0,0.0,0.0,0.0,0.0,0.0,0.0,0.0,0.0,0.0,0.0,0.0,0.0,0.0,0.0,0.0,0.0,0.0,0.0,0.0,-1.2454,-1.2668,-1.1983,-1.2198,-1.2283,-1.194,-1.1897,-1.1681,-1.1187,-1.1241,0.0,0.0,0.0,0.0,0.0,0.0,0.0,0.0,0.0,0.0,0.0,0.0,0.0,0.0,0.0,0.0,0.0,0.0,0.0,0.0,0.0,0.0,0.0,0.0,0.0,0.0,0.0,0.0,0.0,0.0,0.0,0.0,0.0,0.0,0.0,0.0,0.0,0.0,0.0,0.0,0.0,0.0,0.0,0.0,0.0,0.0,0.0,0.0,0.0,0.0,0.0,0.0,0.0,0.0,0.0,0.0,0.0,0.0,0.0,0.0,0.0,0.0,0.0,0.0,0.0,0.0,0.0,0.0,0.0,0.0,0.0,0.0,0.0,0.0,0.0,0.0,0.0,0.0,0.0,0.0,0.0,0.0,0.0,0.0,0.0,0.0,0.0,0.0,0.0,0.0,0.0,0.0,0.0,0.0,0.0,0.0,0.0,0.0,0.0,0.0,0.0,0.0,-1.2596,-1.2892,-1.2371,-1.2714,-1.2807,-1.2279,-1.2189,-1.1897,-1.1348,-1.1305,0.0,0.0,0.0,0.0,0.0,0.0,0.0,0.0,0.0,0.0,0.0,0.0,0.0,0.0,0.0,0.0,0.0,0.0,0.0,0.0,0.0,0.0,0.0,0.0,0.0,0.0,0.0,0.0,0.0,0.0,0.0,0.0,0.0,0.0,0.0,0.0,0.0,0.0,0.0,0.0,0.0,0.0,0.0,0.0,0.0,0.0,0.0,0.0,0.0,0.0,0.0,0.0,0.0,0.0,0.0,0.0,0.0,0.0,0.0,0.0,0.0,0.0,0.0,0.0,0.0,0.0,0.0,0.0,0.0,0.0,0.0,0.0,0.0,0.0,0.0,0.0,0.0,0.0,0.0,0.0,0.0,0.0,0.0,0.0,0.0,0.0,0.0,0.0,0.0,0.0,0.0,0.0,0.0,0.0,0.0,0.0,0.0,0.0,0.0,0.0,0.0,0.0,-1.2754,-1.2177,-1.2131,-1.1935,-1.1805,-1.176,-1.1521,-1.1348,-1.1305,-1.1305,0.0,0.0,0.0,0.0,0.0,0.0,0.0,0.0,0.0,0.0,0.0,0.0,0.0,0.0,0.0,0.0,0.0,0.0,0.0,0.0,0.0,0.0,0.0,0.0,0.0,0.0,0.0,0.0,0.0,0.0,0.0,0.0,0.0,0.0,0.0,0.0,0.0,0.0,0.0,0.0,0.0,0.0,0.0,0.0,0.0,0.0,0.0,0.0,0.0,0.0,0.0,0.0,0.0,0.0,0.0,0.0,0.0,0.0,0.0,0.0,0.0,0.0,0.0,0.0,0.0,0.0,0.0,0.0,0.0,0.0,0.0,0.0,0.0,0.0,0.0,0.0,0.0,0.0,0.0,0.0,0.0,0.0,0.0,0.0,0.0,0.0,0.0,0.0,0.0,0.0,0.0,0.0,0.0,0.0,0.0,0.0,0.0,0.0,0.0,0.0,0.0,0.0,-1.3074,-1.3178,0.0,-1.3005,-1.3036,-1.2598,-1.2462,-1.2171,-1.1575,0.0,0.0,0.0,0.0,0.0,0.0,0.0,0.0,0.0,0.0,0.0,0.0,0.0,0.0,0.0,0.0,0.0,0.0,0.0,0.0,0.0,0.0,0.0,0.0,0.0,0.0,0.0,0.0,0.0,0.0,0.0,0.0,0.0,0.0,0.0,0.0,0.0,0.0,0.0,0.0,0.0,0.0,0.0,0.0,0.0,0.0,0.0,0.0,0.0,0.0,0.0,0.0,0.0,0.0,0.0,0.0,0.0,0.0,0.0,0.0,0.0,0.0,0.0,0.0,0.0,0.0,0.0,0.0,0.0,0.0,0.0,0.0,0.0,0.0,0.0,0.0,0.0,0.0,0.0,0.0,0.0,0.0,0.0,0.0,0.0,0.0,0.0,0.0,0.0,0.0,0.0,0.0,0.0,0.0,0.0,0.0,0.0,0.0,0.0,0.0,0.0,0.0,-1.2583,-1.3182,-1.3518,0.0,-1.3355,-1.3399,-1.2905,-1.2825,-1.2496,-1.1759,0.0,0.0,0.0,0.0,0.0,0.0,0.0,0.0,0.0,0.0,0.0,0.0,0.0,0.0,0.0,0.0,0.0,0.0,0.0,0.0,0.0,0.0,0.0,0.0,0.0,0.0,0.0,0.0,0.0,0.0,0.0,0.0,0.0,0.0,0.0,0.0,0.0,0.0,0.0,0.0,0.0,0.0,0.0,0.0,0.0,0.0,0.0,0.0,0.0,0.0,0.0,0.0,0.0,0.0,0.0,0.0,0.0,0.0,0.0,0.0,0.0,0.0,0.0,0.0,0.0,0.0,0.0,0.0,0.0,0.0,0.0,0.0,0.0,0.0,0.0,0.0,0.0,0.0,0.0,0.0,0.0,0.0,0.0,0.0,0.0,0.0,0.0,0.0,0.0,0.0,0.0,0.0,0.0,0.0,0.0,0.0,0.0,0.0,0.0,0.0,0.0,0.0,-1.3461,-1.3039,-1.2807,-1.2807,-1.2554,-1.2414,-1.2414,-1.2245,-1.1997,0.0,0.0,0.0,0.0,0.0,0.0,0.0,0.0,0.0,0.0,0.0,0.0,0.0,0.0,0.0,0.0,0.0,0.0,0.0,0.0,0.0,0.0,0.0,0.0,0.0,0.0,0.0,0.0,0.0,0.0,0.0,0.0,0.0,0.0,0.0,0.0,0.0,0.0,0.0,0.0,0.0,0.0,0.0,0.0,0.0,0.0,0.0,0.0,0.0,0.0,0.0,0.0,0.0,0.0,0.0,0.0,0.0,0.0,0.0,0.0,0.0,0.0,0.0,0.0,0.0,0.0,0.0,0.0,0.0,0.0,0.0,0.0,0.0,0.0,0.0,0.0,0.0,0.0,0.0,0.0,0.0,0.0,0.0,0.0,0.0,0.0,0.0,0.0,0.0,0.0,0.0,0.0,0.0,0.0,0.0,0.0,0.0,0.0,0.0,0.0,0.0,0.0,0.0,-1.2999,-1.2861,-1.2807,-1.2807,-1.2753,-1.2662,-1.2662,-1.2645,-1.2505,-1.2221,0.0,0.0,0.0,0.0,0.0,0.0,0.0,0.0,0.0,0.0,0.0,0.0,0.0,0.0,0.0,0.0,0.0,0.0,0.0,0.0,0.0,0.0,0.0,0.0,0.0,0.0,0.0,0.0,0.0,0.0,0.0,0.0,0.0,0.0,0.0,0.0,0.0,0.0,0.0,0.0,0.0,0.0,0.0,0.0,0.0,0.0,0.0,0.0,0.0,0.0,0.0,0.0,0.0,0.0,0.0,0.0,0.0,0.0,0.0,0.0,0.0,0.0,0.0,0.0,0.0,0.0,0.0,0.0,0.0,0.0,0.0,0.0,0.0,0.0,0.0,0.0,0.0,0.0,0.0,0.0,0.0,0.0,0.0,0.0,0.0,0.0,0.0,0.0,0.0,0.0,0.0,0.0,0.0,0.0,0.0,0.0,0.0,0.0,0.0,0.0,0.0,0.0,-1.2807,-1.2807,-1.2807,-1.2807,-1.2807,-1.2807,-1.2807,-1.2807,-1.271,-1.2425,0.0,0.0,0.0,0.0,0.0,0.0,0.0,0.0,0.0,0.0,0.0,0.0,0.0,0.0,0.0,0.0,0.0,0.0,0.0,0.0,0.0,0.0,0.0,0.0,0.0,0.0,0.0,0.0,0.0,0.0,0.0,0.0,0.0,0.0,0.0,0.0,0.0,0.0,0.0,0.0,0.0,0.0,0.0,0.0,0.0,0.0,0.0,0.0,0.0,0.0,0.0,0.0,0.0,0.0,0.0,0.0,0.0,0.0,0.0,0.0,0.0,0.0,0.0,0.0,0.0,0.0,0.0,0.0,0.0,0.0,0.0,0.0,0.0,0.0,0.0,0.0,0.0,0.0,0.0,0.0,0.0,0.0,0.0,0.0,0.0,0.0,0.0,0.0,0.0,0.0,0.0,0.0,0.0,0.0,0.0,0.0,0.0,0.0,0.0,0.0,0.0,0.0,-1.2807,-1.2807,-1.2807,-1.2807,-1.2807,-1.2807,-1.2807,-1.2807,-1.2721,-1.2457,0.0,0.0,0.0,0.0,0.0,0.0,0.0,0.0,0.0,0.0,0.0,0.0,0.0,0.0,0.0,0.0,0.0,0.0,0.0,0.0,0.0,0.0,0.0,0.0,0.0,0.0,0.0,0.0,0.0,0.0,0.0,0.0,0.0,0.0,0.0,0.0,0.0,0.0,0.0,0.0,0.0,0.0,0.0,0.0,0.0,0.0,0.0,0.0,0.0,0.0,0.0,0.0,0.0,0.0,0.0,0.0,0.0,0.0,0.0,0.0,-1.6177,0.0,0.0,0.0,0.0,0.0,0.0,0.0,0.0,0.0,0.0,0.0,0.0,0.0,0.0,0.0,0.0,0.0,0.0,0.0,0.0,0.0,0.0,0.0,0.0,0.0,0.0,0.0,0.0,0.0,0.0,0.0,0.0,0.0,0.0,0.0,0.0,0.0,0.0,0.0,0.0,0.0,-1.2807,-1.2807,-1.2807,-1.2807,-1.2807,-1.2807,-1.2807,-1.2807,-1.2797,-1.2743,-1.2511,0.0,0.0,0.0,0.0,0.0,0.0,0.0,0.0,0.0,0.0,0.0,0.0,0.0,0.0,0.0,0.0,0.0,0.0,0.0,0.0,0.0,0.0,0.0,0.0,0.0,0.0,0.0,0.0,0.0,0.0,0.0,0.0,0.0,0.0,0.0,0.0,0.0,0.0,0.0,0.0,0.0,0.0,0.0,0.0,0.0,0.0,0.0,0.0,0.0,0.0,0.0,0.0,0.0,0.0,0.0,0.0,0.0,0.0,0.0,0.0,-1.5727,0.0,0.0,0.0,0.0,0.0,0.0,0.0,0.0,0.0,0.0,0.0,0.0,0.0,0.0,0.0,0.0,0.0,0.0,0.0,0.0,0.0,0.0,0.0,0.0,0.0,0.0,0.0,0.0,0.0,0.0,0.0,0.0,0.0,0.0,0.0,0.0,0.0,0.0,0.0,0.0,-1.2807,-1.2807,-1.2807,-1.2807,-1.2807,-1.2807,-1.2807,-1.2807,-1.2807,-1.2807,-1.2651,0.0,0.0,0.0,0.0,0.0,0.0,0.0,0.0,0.0,0.0,0.0,0.0,0.0,0.0,0.0,0.0,0.0,0.0,0.0,0.0,0.0,0.0,0.0,0.0,0.0,0.0,0.0,0.0,0.0,0.0,0.0,0.0,0.0,0.0,0.0,0.0,0.0,0.0,0.0,0.0,0.0,0.0,0.0,0.0,0.0,0.0,0.0,0.0,0.0,0.0,0.0,0.0,0.0,-1.5778,-1.5849,-1.5839,-1.5808,-1.5027,-1.3766,-1.4689,-1.4481,-1.3576,0.0,0.0,0.0,0.0,0.0,0.0,0.0,0.0,0.0,0.0,0.0,0.0,0.0,0.0,0.0,0.0,0.0,0.0,0.0,0.0,0.0,0.0,0.0,0.0,0.0,-1.0755,-1.1087,0.0,0.0,0.0,0.0,0.0,0.0,0.0,0.0,0.0,0.0,0.0,0.0,-1.2807,-1.2807,-1.2807,-1.2807,-1.2807,-1.2807,-1.2807,-1.2807,-1.2807,-1.2807,-1.2807,-1.2807,0.0,0.0,0.0,0.0,0.0,0.0,0.0,0.0,0.0,0.0,0.0,0.0,0.0,0.0,0.0,0.0,0.0,0.0,0.0,0.0,0.0,0.0,0.0,0.0,0.0,0.0,0.0,0.0,0.0,0.0,0.0,0.0,-1.5862,-1.5149,0.0,0.0,0.0,0.0,0.0,0.0,0.0,0.0,0.0,0.0,0.0,0.0,0.0,-1.3012,-1.3141,-1.3384,-1.357,-1.3764,-1.362,-1.3553,-1.3544,-1.3326,-1.316,-1.2922,-1.3093,0.0,-1.2097,-1.2653,0.0,0.0,0.0,0.0,0.0,0.0,0.0,0.0,0.0,0.0,0.0,0.0,0.0,0.0,0.0,0.0,0.0,0.0,0.0,0.0,0.0,0.0,-1.1159,-1.0987,-1.0987,-1.098,0.0,-1.1594,-1.1997,-1.163,0.0,0.0,0.0,0.0,0.0,0.0,0.0,0.0,-1.2807,-1.2807,-1.2807,-1.2807,-1.2807,-1.2807,-1.2807,-1.2807,-1.2807,-1.2807,-1.2807,-1.2807,-1.2807,-1.2807,0.0,0.0,0.0,0.0,0.0,0.0,0.0,0.0,0.0,0.0,0.0,0.0,0.0,0.0,0.0,0.0,0.0,0.0,0.0,0.0,0.0,0.0,0.0,0.0,0.0,0.0,0.0,0.0,0.0,-1.4534,-1.3996,-1.3231,-1.3635,-1.3925,0.0,0.0,0.0,0.0,0.0,0.0,0.0,0.0,0.0,-1.3121,-1.2946,-1.2946,-1.3133,-1.3214,-1.3344,-1.3522,-1.3441,-1.3401,-1.3401,-1.3259,-1.3238,-1.3141,-1.3141,-1.2962,-1.2702,-1.2545,-1.2451,-1.2428,0.0,0.0,0.0,0.0,-1.481,-1.4872,-1.4318,-1.4161,0.0,0.0,0.0,0.0,0.0,0.0,0.0,0.0,0.0,0.0,0.0,0.0,0.0,-0.9413,-0.9248,-0.9216,-0.9078,-0.9788,-1.0492,0.0,-1.1105,-1.1634,-1.1964,0.0,0.0,0.0,0.0,-1.2807,-1.2807,-1.2807,-1.2807,-1.2807,-1.2807,-1.2807,-1.2807,-1.2807,-1.2807,-1.2807,-1.2807,-1.2807,-1.2807,-1.2214,-1.1912,0.0,0.0,0.0,0.0,0.0,0.0,0.0,0.0,0.0,0.0,0.0,0.0,0.0,0.0,0.0,0.0,0.0,0.0,0.0,0.0,0.0,0.0,0.0,0.0,0.0,0.0,0.0,0.0,-1.2892,-1.2466,-1.1805,-1.2269,-1.2612,0.0,0.0,0.0,0.0,0.0,0.0,-1.2288,-1.2596,-1.2873,-1.31,-1.3319,-1.3522,-1.3709,-1.3758,-1.3847,-1.3977,-1.3817,-1.3776,-1.3768,-1.375,-1.3636,-1.3506,-1.3506,-1.3506,-1.3449,-1.2735,-1.2442,-1.2482,-1.2826,-1.2987,-1.3217,-1.4502,-1.5073,-1.5082,-1.4156,-1.3878,-1.3639,-1.2026,0.0,-1.1153,-1.1113,0.0,0.0,0.0,0.0,-1.0584,-0.9503,-0.9214,-0.895,-0.8139,-0.7955,-0.785,-0.7763,-0.8325,-0.901,0.0,-1.0061,-1.0465,-1.0961,0.0,0.0,0.0,0.0,-1.2548,-1.2548,-1.2794,-1.2991,-1.2991,-1.2991,-1.2991,-1.2991,-1.2937,-1.2905,-1.2905,-1.2597,-1.2419,-1.2419,-1.1375,-1.0779,-1.0779,0.0,0.0,0.0,0.0,0.0,0.0,0.0,0.0,0.0,0.0,0.0,0.0,0.0,0.0,0.0,0.0,0.0,0.0,0.0,0.0,0.0,0.0,0.0,0.0,0.0,0.0,0.0,0.0,0.0,-1.1575,-1.2155,0.0,0.0,0.0,0.0,-1.2547,-1.258,-1.2678,-1.3019,-1.3222,-1.349,-1.3839,-1.418,-1.4456,-1.4635,-1.4806,-1.4887,-1.4895,-1.4554,-1.4391,-1.4383,-1.4042,-1.3888,-1.3872,-1.3872,-1.3872,-1.3815,-1.3108,-1.2742,-1.2759,-1.2858,-1.3013,-1.3358,-1.4788,-1.5486,-1.5719,-1.4911,-1.4585,-1.4298,-1.2739,-1.1988,-1.1616,-1.1458,-1.1521,0.0,0.0,-1.0044,-0.9969,-0.8591,-0.8191,-0.816,-0.8103,-0.8015,-0.7872,-0.7861,-0.7741,-0.7847,0.0,-0.9605,-1.0241,-1.01,0.0,-1.0067,-1.0111,-1.1052,-1.1784,-1.1784,-1.2761,-1.3437,-1.3437,-1.3437,-1.3437,-1.3437,-1.3222,-1.3082,-1.3082,-1.1924,-1.1268,-1.1268,-1.0248,-0.9657,-0.9657,-0.9608,0.0,0.0,0.0,0.0,0.0,0.0,0.0,0.0,0.0,0.0,0.0,0.0,0.0,0.0,0.0,0.0,0.0,0.0,0.0,0.0,0.0,0.0,0.0,0.0,0.0,0.0,0.0,0.0,-1.0012,-1.0492,0.0,-1.0373,-1.0392,-1.0485,-1.0631,-1.0971,-1.1177,-1.1355,-1.1683,-1.1945,-1.2033,-1.2299,-1.2428,-1.2483,-1.2442,-1.2422,-1.2422,-1.2142,-1.204,-1.2033,-1.183,-1.1807,-1.1807,-1.1712,-1.1671,-1.165,-1.1267,-1.1551,-1.2209,-1.2401,-1.199,-1.1431,-1.2722,-1.3228,-1.3087,-1.2472,-1.2127,-1.1687,-1.0172,-0.9564,-0.9412,-0.9368,-0.9387,-0.938,-0.9026,-0.8898,-0.8805,-0.83,-0.8144,-0.8097,-0.8015,-0.7966,-0.7872,-0.7872,-0.7747,-0.7729,-0.7985,-0.8182,-0.8464,-0.9009,-0.9087,-0.9315,-0.9891,-1.0344,-1.0603,-1.0603,-1.0966,-1.1225,-1.1225,-1.1225,-1.1225,-1.1225,-1.1096,-1.0988,-1.0988,-1.0451,-1.0149,-1.0149,-0.9156,-0.857,-0.857,-0.7875,-0.7372,0.0,0.0,0.0,0.0,0.0,0.0,0.0,0.0,0.0,0.0,0.0,0.0,0.0,0.0,0.0,0.0,0.0,0.0,0.0,0.0,0.0,0.0,0.0,0.0,0.0,0.0,-0.9713,-0.9405,-0.9836,-1.0138,-0.9783,-0.9883,-1.0066,-1.0148,-1.0479,-1.0732,-1.0766,-1.1137,-1.1239,-1.1184,-1.1306,-1.1427,-1.1384,-1.1221,-1.1154,-1.1106,-1.0896,-1.0812,-1.0763,-1.0748,-1.0681,-1.0632,-1.0547,-1.0511,-1.0505,-1.0365,-1.0519,-1.0928,-1.1462,-1.1158,-1.0599,-1.1765,-1.2074,-1.1873,-1.1198,-1.0531,-0.9755,-0.8649,-0.8356,-0.8356,-0.8356,-0.8356,-0.8361,-0.8405,-0.8361,-0.8285,-0.8183,-0.8144,-0.8097,-0.8015,-0.796,-0.7872,-0.7872,-0.778,-0.7703,-0.7703,-0.747,-0.7477,-0.8109,-0.8164,-0.8375,-0.8979,-0.9396,-0.9625,-0.9625,-0.9997,-1.0261,-1.0261,-1.0261,-1.0261,-1.0261,-1.0056,-0.9927,-0.9922,-0.9392,-0.9126,-0.9065,-0.8072,-0.7547,-0.7547,-0.6849,-0.6489,-0.6622,0.0,0.0,0.0,0.0,0.0,0.0,0.0,0.0,0.0,0.0,0.0,0.0,0.0,0.0,0.0,0.0,0.0,0.0,0.0,0.0,0.0,0.0,0.0,-0.9646,-0.977,-0.9771,-0.9717,-1.0378,-1.0714,-1.0445,-1.0773,-1.1069,-1.1221,-1.1305,-1.1393,-1.1338,-1.1544,-1.155,-1.1418,-1.1538,-1.1544,-1.1412,-1.1412,-1.1346,-1.13,-1.1095,-1.0969,-1.092,-1.0832,-1.0684,-1.0634,-1.0622,-1.0622,-1.061,-1.0552,-0.9838,-0.893,-1.0076,-1.0645,-1.0992,-1.1894,-1.235,-1.237,-1.1356,-1.0041,-0.8747,-0.8628,-0.859,-0.859,-0.859,-0.859,-0.8562,-0.8454,-0.8421,-0.8394,-0.8269,-0.8149,-0.8119,-0.8114,-0.8021,-0.7872,-0.7872,-0.7785,-0.7709,-0.7709,-0.7616,-0.7529,-0.7519,-0.7421,-0.7282,-0.7282,-0.8189,0.0,-0.8878,-0.9864,-1.057,-1.057,-1.0562,-1.0617,-1.0617,-1.0347,-1.011,-0.9996,-0.8837,-0.8079,-0.7988,-0.7059,-0.6622,-0.6627,-0.6627,-0.6627,-0.6627,0.0,0.0,0.0,0.0,0.0,0.0,0.0,0.0,0.0,0.0,0.0,0.0,0.0,0.0,0.0,0.0,0.0,0.0,0.0,0.0,0.0,-0.8334,-0.8069,-0.9148,-0.8519,-0.8015,-0.8156,-0.8402,-0.8627,-0.852,-0.8661,-0.8802,-0.8728,-0.8907,-0.8944,-0.8855,-0.8861,-0.887,-0.8846,-0.8873,-0.8873,-0.8846,-0.8846,-0.8827,-0.8799,-0.8776,-0.8668,-0.8636,-0.8485,-0.8402,-0.8365,-0.8299,-0.8234,-0.8229,-0.8123,-0.786,-0.7772,-0.9419,-0.96,-0.8997,-0.97,-0.9892,-0.9799,-0.9429,-0.9035,-0.8633,-0.86,-0.859,-0.859,-0.859,-0.859,-0.8579,-0.8552,-0.8541,-0.8492,-0.8291,-0.8209,-0.8138,-0.7964,-0.7955,-0.7872,-0.7872,-0.7845,-0.785,-0.7999,-0.7932,-0.7823,-0.7562,-0.7491,-0.747,-0.747,-0.7668,0.0,-0.7875,-0.8073,-0.8239,-0.8239,-0.8202,-0.8146,-0.8146,-0.7936,-0.7728,-0.7691,-0.7214,-0.6911,-0.6969,-0.6753,-0.666,-0.6752,-0.6839,-0.6839,0.0,0.0,0.0,0.0,0.0,0.0,0.0,0.0,0.0,0.0,0.0,0.0,0.0,0.0,0.0,0.0,0.0,0.0,0.0,0.0,0.0,0.0,-0.7692,-0.7673,-0.8488,-0.7945,-0.7537,-0.768,-0.7791,-0.7868,-0.7905,-0.7991,-0.8007,-0.7917,-0.8076,-0.8097,-0.7917,-0.8032,-0.8044,-0.7913,-0.8019,-0.8027,-0.7909,-0.7946,-0.7929,-0.7856,-0.7856,-0.7836,-0.7795,-0.7729,-0.7676,0.0,-0.7493,-0.7431,-0.7419,-0.7288,-0.7215,0.0,0.0,0.0,0.0,0.0,-0.8905,-0.8682,-0.8611,-0.859,-0.859,-0.859,-0.859,-0.859,-0.859,-0.859,-0.8579,-0.853,-0.8481,-0.841,-0.8269,-0.816,-0.8062,-0.797,-0.7971,-0.7872,-0.7872,-0.7971,-0.8032,-0.8103,-0.8095,0.0,-0.7856,-0.7774,-0.7741,-0.7741,-0.766,-0.7595,-0.7595,-0.7486,-0.7336,-0.7282,-0.7317,-0.7285,-0.7236,-0.7105,0.0,0.0,0.0,-0.6698,-0.6768,-0.6774,0.0,0.0,0.0,-0.6948,-0.6877,0.0,0.0,0.0,-0.691,-0.6741,0.0,0.0,0.0,0.0,0.0,0.0,0.0,0.0,0.0,0.0,0.0,0.0,0.0,0.0,0.0,0.0,-0.749,-0.748,-0.7893,-0.7889,-0.7868,-0.7942,-0.795,-0.7978,-0.8056,-0.8154,-0.817,-0.8068,-0.8232,-0.8256,-0.8072,0.0,0.0,0.0,0.0,-0.8317,-0.8064,-0.8154,-0.8113,-0.795,-0.795,-0.7905,-0.7831,-0.7901,-0.7885,-0.7795,-0.7701,-0.7656,-0.7635,-0.746,-0.7409,-0.7456,-0.7938,-0.8145,-0.8256,-0.8771,-0.8818,-0.8606,-0.8606,0.0,0.0,-0.86,-0.86,-0.859,-0.8606,-0.86,-0.8568,-0.8465,-0.8361,-0.8274,-0.8194,-0.8084,-0.7937,-0.8092,-0.8021,-0.7872,-0.7872,-0.8021,-0.8103,-0.813,-0.816,-0.8178,-0.8269,-0.816,-0.8136,-0.8136,-0.7894,-0.7763,-0.7763,-0.7655,-0.7535,-0.7426,0.0,0.0,-0.7331,-0.7309,-0.7296,-0.7221,-0.7046,-0.6986,-0.6986,-0.6997,-0.7106,-0.721,-0.7056,-0.7008,-0.7008,-0.6893,-0.6839,-0.6839,-0.6839,-0.6289,0.0,0.0,0.0,0.0,0.0,0.0,0.0,0.0,0.0,0.0,0.0,0.0,0.0,0.0,0.0,-0.7455,-0.7648,-0.786,-0.8015,-0.8085,-0.8101,-0.8044,-0.8036,-0.8044,-0.806,-0.8211,-0.824,-0.8076,-0.8232,-0.8256,-0.8072,-0.8097,-0.8097,-0.8064,-0.8187,-0.8191,-0.8064,-0.8154,-0.8142,-0.8036,0.0,0.0,-0.8011,-0.7958,-0.7885,-0.7795,-0.7701,-0.7619,-0.7542,-0.7435,-0.7671,-0.81,-0.8125,-0.8462,-0.8947,-0.9046,-0.8943,-0.8736,-0.8736,-0.8671,-0.8606,-0.8704,-0.8666,-0.8606,-0.8704,-0.8666,0.0,-0.8562,-0.8541,-0.8497,-0.8405,-0.8274,-0.8144,-0.8136,-0.8021,-0.7872,-0.7872,-0.7949,-0.7964,-0.816,-0.822,-0.8296,-0.8486,-0.8345,-0.8198,-0.8198,-0.816,-0.8133,-0.8133,-0.8024,-0.8004,-0.7977,-0.785,-0.7758,-0.7644,-0.754,-0.7388,-0.7226,-0.7046,-0.6986,-0.6986,-0.7128,-0.7188,-0.721,-0.7188,-0.7177,-0.7177,-0.6181,-0.5733,-0.5733,-0.5733,-0.5579,0.0,0.0,0.0,0.0,0.0,0.0,0.0,0.0,0.0,0.0,0.0,-0.7188,-0.7417,0.0,-0.744,-0.7782,-0.7938,-0.8044,-0.8179,-0.8199,-0.8166,-0.8072,-0.806,-0.806,-0.806,-0.8146,-0.8179,-0.8134,-0.817,-0.8179,-0.8134,-0.813,-0.8109,-0.8064,-0.8195,-0.8199,-0.8064,-0.8154,-0.8154,-0.806,-0.806,-0.804,-0.7999,-0.7954,-0.7885,-0.7795,-0.7701,-0.7635,-0.7578,-0.7629,-0.8026,-0.8666,-0.8431,-0.8663,-0.9133,-0.9133,-0.8981,-0.878,-0.884,-0.8742,-0.8606,-0.8731,-0.8687,-0.86,-0.866,-0.8638,-0.859,-0.859,-0.8546,-0.8503,-0.8503,-0.8323,-0.8144,-0.8144,-0.8002,-0.7872,-0.7872,-0.7982,-0.8059,-0.8122,-0.8193,-0.8274,-0.8388,-0.8312,-0.8274,-0.8394,-0.8361,-0.8329,-0.8329,-0.8166,-0.8114,-0.8114,-0.8059,-0.7999,-0.7883,-0.7714,-0.7529,-0.735,-0.7171,-0.7122,-0.7122,-0.7182,-0.721,-0.721,-0.6599,-0.632,-0.632,-0.5091,-0.4474,-0.4474,-0.386,-0.358,0.0,0.0,0.0,0.0,0.0,0.0,0.0,-0.7716,-0.7621,-0.7809,-0.7433,-0.7246,-0.7864,-0.7636,-0.7566,-0.8089,-0.8125,-0.8134,-0.8264,-0.8248,-0.8183,-0.8076,-0.806,-0.806,-0.806,-0.8076,-0.8113,-0.8166,-0.8121,-0.8121,-0.8195,-0.8183,-0.8146,-0.8089,-0.8232,-0.8228,-0.8064,-0.8154,-0.8154,-0.806,-0.8044,-0.8003,-0.7934,-0.7917,-0.7856,-0.7927,-0.7915,-0.7865,-0.7906,-0.7968,-0.838,-0.894,-0.8883,-0.896,-0.9166,-0.9144,-0.8992,-0.8818,-0.8889,-0.8774,-0.8606,-0.8731,-0.8687,-0.859,-0.8617,-0.8606,-0.859,-0.859,-0.8541,-0.8508,-0.86,-0.841,-0.8214,-0.8285,-0.8138,-0.7964,-0.7915,-0.8048,-0.8114,-0.8114,-0.8133,-0.8209,-0.8167,-0.8172,-0.8301,-0.8492,-0.8443,-0.8394,-0.8416,-0.8247,-0.8196,-0.8218,-0.8202,-0.818,-0.8089,-0.7872,-0.7693,-0.7595,-0.7361,-0.727,-0.7248,-0.6998,-0.6877,-0.6877,-0.5648,-0.5043,-0.5058,-0.3824,-0.3267,-0.3221,-0.2035,-0.1578,-0.7519,-0.7758,-0.8218,-0.8568,-0.8423,-0.8308,0.0,-0.8502,-0.7911,-0.8214,-0.7918,-0.7752,-0.7834,-0.7819,-0.7909,-0.8052,-0.8138,-0.8162,-0.8101,-0.8223,-0.8256,-0.8085,-0.806,-0.806,-0.806,-0.8134,-0.8154,-0.8085,-0.8142,-0.8187,-0.8199,-0.8121,-0.8109,-0.8179,-0.8203,-0.8166,-0.8064,-0.8154,-0.8154,-0.806,-0.7987,-0.7946,-0.7934,-0.7852,-0.8004,-0.8225,-0.8526,-0.859,-0.8491,-0.8743,-0.886,-0.8907,-0.9138,-0.9224,-0.9275,-0.9171,-0.8976,-0.8847,-0.8823,-0.8704,-0.8606,-0.8731,-0.8687,-0.8606,-0.8715,-0.8671,-0.859,-0.859,-0.8655,-0.8736,-0.8747,-0.872,-0.8666,-0.8568,-0.8448,-0.8296,-0.8141,-0.8108,-0.8114,-0.8114,-0.813,-0.8106,-0.8214,-0.8172,-0.8178,-0.8269,-0.8263,-0.8296,-0.8405,-0.8394,-0.8416,-0.8519,-0.8437,-0.8334,-0.8225,-0.7992,-0.7845,-0.7834,-0.7611,-0.7426,-0.7323,-0.62,-0.5592,-0.5592,-0.4418,-0.3777,-0.3774,-0.2574,-0.2019,-0.1989,-0.0761,-0.0749,-0.81,-0.8253,-0.8448,-0.8791,-0.8997,-0.8829,-0.7967,-0.7204,-0.6467,-0.5538,-0.4979,-0.4665,-0.4873,-0.5114,-0.5284,-0.5461,-0.5725,-0.5895,-0.5904,-0.5609,-0.5421,-0.5387,-0.5349,-0.606,-0.7977,-0.813,-0.817,-0.8293,-0.8187,-0.8191,-0.835,-0.817,-0.8105,-0.8195,-0.8404,-0.8441,-0.8483,-0.8773,-0.8857,-0.8817,-0.8719,-0.8643,-0.858,-0.8487,-0.8468,-0.86,-0.8653,-0.8813,-0.8913,-0.897,-0.9091,-0.9255,-0.9278,-0.9302,-0.9296,-0.9253,-0.9111,-0.8884,-0.8976,-0.8807,-0.8606,-0.8731,-0.8687,-0.8595,-0.8649,-0.8628,-0.86,-0.8671,-0.8731,-0.8769,-0.8769,-0.8715,-0.8633,-0.8519,-0.8399,-0.8285,-0.8182,-0.816,-0.816,-0.816,-0.816,-0.8176,-0.8225,-0.8176,-0.7896,-0.7065,-0.765,-0.8188,-0.8307,-0.8247,-0.8225,-0.8269,-0.8361,-0.8399,-0.8345,-0.7423,-0.6855,-0.6855,-0.5825,-0.5187,-0.5161,-0.4657,-0.4357,-0.4372,-0.3153,-0.2543,-0.256,-0.134,-0.076,-0.0766,-0.0236,-0.0292,-0.7196,-0.7355,-0.7451,-0.7617,-0.7938,-0.7817,-0.6311,-0.5651,-0.4952,-0.351,-0.2913,-0.2747,-0.2932,-0.316,-0.3475,-0.3705,-0.3938,-0.4178,-0.4211,-0.387,-0.3591,-0.3617,-0.3569,-0.4449,-0.6833,-0.748,-0.7789,-0.7887,-0.8334,-0.865,-0.886,-0.8672,-0.8577,-0.8539,-0.8813,-0.8932,-0.8905,-0.924,-0.9407,-0.9402,-0.9297,-0.9188,-0.9083,-0.9034,-0.9007,-0.8929,-0.8972,-0.9061,-0.9319,-0.9128,-0.9244,-0.9427,-0.934,-0.9285,-0.9258,-0.9258,-0.9128,-0.8884,-0.8976,-0.8807,-0.86,-0.8693,-0.866,-0.859,-0.859,-0.859,-0.8606,-0.8693,-0.8742,-0.8701,-0.8292,-0.8183,-0.7978,-0.7474,-0.7257,-0.7187,-0.7066,-0.7052,-0.7043,-0.7015,-0.7011,-0.7011,-0.7011,-0.695,-0.6606,-0.5646,-0.6366,-0.7139,-0.7586,-0.7585,-0.7456,-0.7046,-0.712,-0.7224,-0.7187,-0.6217,-0.5519,-0.5541,-0.4355,-0.3696,-0.3654,-0.3293,-0.3104,-0.3083,-0.1933,-0.1297,-0.1303,-0.0415,0.0,0.0,0.0,0.0,-0.3986,-0.4182,-0.4442,-0.4622,-0.4497,-0.4414,-0.4514,-0.429,-0.3954,-0.3404,-0.3326,-0.325,-0.3291,-0.3267,-0.3413,-0.3928,-0.398,-0.4038,-0.404,-0.4122,-0.412,-0.4036,-0.4082,-0.4174,0.0,-0.5942,-0.6759,-0.633,-0.8408,-0.9707,-0.963,-0.9707,-0.9659,-0.9484,-0.9564,-0.9511,-0.9407,-0.9407,-0.9407,-0.9402,-0.9297,-0.9188,-0.9078,-0.9268,-0.9402,-0.9392,-0.9659,-0.9699,-0.9666,-0.9541,-0.9416,-0.9307,-0.9307,-0.9237,-0.9139,-0.9139,-0.8992,-0.8847,-0.8687,-0.8595,-0.859,-0.859,-0.859,-0.859,-0.859,-0.859,-0.859,-0.859,-0.8677,-0.8497,-0.706,-0.6777,-0.6468,-0.494,-0.4584,-0.455,-0.4298,-0.4207,-0.4188,-0.4064,-0.4053,-0.4053,-0.4053,-0.4053,-0.3986,-0.3989,-0.3989,-0.4567,-0.5977,-0.6298,-0.5815,-0.435,-0.4221,-0.4247,-0.4246,-0.4181,-0.4142,-0.4133,-0.396,-0.3894,-0.3828,-0.253,-0.1836,-0.1863,-0.0652,-0.0059,-0.006,0.0,0.0,0.0,0.0,0.0,-0.4026,-0.4229,-0.4364,-0.4609,-0.4812,-0.459,-0.3518,-0.3009,-0.2302,-0.0948,-0.0422,-0.0249,-0.0168,-0.0414,-0.0738,-0.0826,-0.1169,-0.135,-0.136,-0.1112,-0.0935,-0.0908,-0.0932,-0.0857,0.0,0.0,0.0,-0.4901,-0.5537,-0.5978,-0.6107,-0.7122,-0.7738,-0.7765,-0.9187,-0.9352,-0.806,-0.9564,-0.9648,-0.8558,-0.9554,-0.9933,-0.9667,-0.9745,-0.9786,-0.9781,-0.9812,-0.9818,-0.9764,-0.9568,-0.9465,-0.9416,-0.9334,-0.928,-0.9082,-0.8001,-0.7576,-0.7599,-0.8423,-0.8655,-0.859,-0.859,-0.859,-0.859,-0.859,-0.859,-0.8606,-0.8687,-0.8058,-0.7196,-0.6719,-0.5913,-0.5155,-0.4541,-0.4392,-0.4313,-0.4273,-0.4264,-0.4193,-0.4174,-0.4168,-0.4168,-0.4168,-0.4073,-0.4034,-0.393,-0.3893,-0.4057,-0.4563,-0.4649,-0.4487,-0.4032,-0.4065,-0.4098,-0.4121,-0.3265,-0.2762,-0.2749,-0.1854,-0.1332,-0.1305,-0.0866,-0.0615,-0.0612,-0.0183,0.0,0.0,0.0,0.0,0.0,0.0,0.0,-0.2694,-0.2748,-0.2792,-0.3038,-0.3234,-0.309,-0.1968,-0.1506,-0.0937,0.0429,0.0919,0.106,0.1151,0.0888,0.0636,0.0479,0.0162,0.0,0.0,0.0253,0.042,0.0415,0.0423,0.0512,0.0,0.0,0.0,-0.3498,-0.4183,-0.4623,-0.4756,-0.5741,-0.6646,-0.7327,-0.8675,-0.8862,-0.768,-0.9077,-0.8892,-0.7129,-0.8117,-0.8447,-0.8317,-0.825,-0.8219,-0.8214,-0.8035,-0.7991,-0.7982,-0.7823,-0.7808,-0.7772,-0.7705,-0.7638,-0.7419,-0.6375,-0.5964,-0.6133,-0.746,-0.791,-0.7917,-0.8451,-0.859,-0.8518,-0.7984,-0.7784,-0.7727,-0.7323,-0.6525,-0.5651,-0.5133,-0.4319,-0.3488,-0.2914,-0.2773,-0.277,-0.2756,-0.2752,-0.2752,-0.2752,-0.2752,-0.2752,-0.2752,-0.2667,-0.2578,-0.2488,-0.2519,-0.2676,-0.3152,-0.3244,-0.3034,-0.2587,-0.2608,-0.263,-0.2644,-0.1843,-0.134,-0.1335,-0.0511,0.0,0.0,0.0,0.0,0.0,0.0,0.0,0.0,0.0,0.0,0.0,0.0,0.0,0.0,0.0,0.0,0.0,0.0,0.0,0.0,0.0,0.0168,0.0588,0.066,0.0648,0.0648,0.0636,0.0547,0.0077,0.0,0.0,0.0,0.0,0.0,0.0,0.0,0.0,0.0,0.0,0.0,-0.1904,0.0,-0.5379,-0.5223,-0.5398,-0.6277,-0.7851,-0.8017,-0.8017,-0.7924,-0.7841,-0.7045,-0.5365,-0.5245,-0.5188,-0.518,-0.5066,-0.5014,-0.5011,-0.4877,-0.4773,-0.4768,-0.4709,-0.4726,-0.467,-0.4667,-0.4598,-0.4498,-0.4424,-0.4317,-0.4394,-0.5701,-0.625,-0.6514,-0.7922,-0.839,-0.8117,-0.6711,-0.6309,-0.6038,-0.4696,-0.4227,-0.3837,-0.246,-0.2058,-0.1646,-0.0343,0.0,0.0,0.0,0.0,0.0,0.0,0.0,0.0,0.0,0.0,0.0,0.0,0.0,-0.0457,-0.1709,-0.189,-0.1441,-0.0124,0.0,0.0,0.0,0.0,0.0,0.0,0.0,0.0,0.0,0.0,0.0,0.0,0.0,0.0,0.0,0.0,0.0,0.0,0.0,0.0,0.0,0.0,0.0,0.0,0.0,0.0,0.0,0.0,0.0,0.0164,0.0159,0.0154,0.0151,0.0152,0.0153,0.0,0.0,0.0,0.0,0.0,0.0,0.0,0.0,0.0,0.0,0.0,0.0,0.0,-0.1127,-0.1477,-0.14,-0.2706,-0.3639,-0.4099,-0.5375,-0.5439,-0.4132,-0.412,-0.4514,-0.522,-0.5224,-0.5166,-0.5043,-0.5049,-0.5014,-0.5014,-0.4997,-0.4911,-0.4909,-0.4847,-0.4788,-0.4804,-0.4683,-0.4698,-0.4485,-0.3294,-0.2847,-0.2834,-0.3136,-0.392,-0.4907,-0.5247,-0.541,-0.5299,-0.4964,-0.483,-0.4763,-0.4428,-0.349,-0.2556,-0.2228,-0.1352,-0.0473,-0.0068,0.0,0.0,0.0,0.0,0.0,0.0,0.0,0.0,0.0,0.0,0.0,0.0,0.0,-0.0133,-0.0451,-0.0508,-0.0377,-0.0062,0.0,0.0,0.0,0.0,0.0,0.0,0.0,0.0,0.0,0.0,0.0,0.0,0.0,0.0,0.0,0.0,0.0,0.0,0.0,0.0,0.0,0.0,0.0,0.0,0.0,0.0,0.0,0.0,0.0,0.0,0.0,0.0,0.0,0.0,0.0,0.0,0.0,0.0,0.0,0.0,0.0,0.0,0.0,0.0,0.0,0.0,0.0,0.0,0.0,0.0,0.0,-0.0964,-0.1915,-0.2754,-0.3681,-0.3737,-0.269,-0.1933,-0.2011,-0.2912,-0.2946,-0.2912,-0.2814,-0.2845,-0.2822,-0.2822,0.0,-0.2822,-0.2819,-0.2708,-0.2675,-0.2718,-0.2684,-0.2652,-0.2547,-0.159,-0.1297,-0.1296,-0.1215,-0.1689,-0.2626,-0.3913,-0.4292,-0.4195,-0.3497,-0.3356,-0.3222,-0.2618,-0.1814,-0.1145,-0.1152,-0.0611,0.0,0.0,0.0,0.0,0.0,0.0,0.0,0.0,0.0,0.0,0.0,0.0,0.0,0.0,0.0,0.0,0.0,0.0,0.0,0.0,0.0,0.0,0.0,0.0,0.0,0.0,0.0,0.0,0.0,0.0,0.0,0.0,0.0,0.0,0.0,0.0,0.0,0.0,0.0,0.0,0.0,0.0,0.0,0.0,0.0,0.0,0.0,0.0,0.0,0.0,0.0,0.0,0.0,0.0,0.0,0.0,0.0,0.0,0.0,0.0,0.0,0.0,0.0,0.0,0.0,0.0,0.0,0.0,0.0,0.0,0.0,0.0,-0.0791,-0.2431,-0.2403,-0.2376,-0.2354,-0.0757,0.0,0.0,0.0,0.0,0.0,0.0,0.0,0.0,0.0,0.0,0.0,0.0,0.0,0.0,0.0,0.0,0.0,0.0,0.0,0.0,0.0,0.0,-0.042,-0.2898,-0.37,-0.3477,-0.2225,-0.1815,-0.1546,-0.0336,0.0,0.0,0.0,0.0,0.0,0.0,0.0,0.0,0.0,0.0,0.0,0.0,0.0,0.0,0.0,0.0,0.0,0.0,0.0,0.0,0.0,0.0,0.0,0.0,0.0,0.0,0.0,0.0,0.0,0.0,0.0,0.0,0.0,0.0,0.0,0.0,0.0,0.0,0.0,0.0,0.0,0.0,0.0,0.0,0.0,0.0,0.0,0.0,0.0,0.0,0.0,0.0,0.0,0.0,0.0,0.0,0.0,0.0,0.0,0.0,0.0,0.0,0.0,0.0,0.0,0.0,0.0,0.0,0.0,0.0,0.0,0.0,0.0,0.0,0.0,0.0,-0.0176,-0.0522,-0.0512,-0.0506,-0.0505,-0.0168,0.0,0.0,0.0,0.0,0.0,0.0,0.0,0.0,0.0,0.0,0.0,0.0,0.0,0.0,0.0,0.0,0.0,0.0,0.0,0.0,0.0,0.0,-0.007,-0.0559,-0.0756,-0.0675,-0.0471,-0.0336,-0.0336,-0.0067,0.0,0.0,0.0,0.0,0.0,0.0,0.0,0.0,0.0,0.0,0.0,0.0,0.0,0.0,0.0,0.0,0.0,0.0,0.0,0.0,0.0,0.0,0.0,0.0,0.0,0.0,0.0,0.0,0.0,0.0,0.0,0.0,0.0,0.0,0.0,0.0,0.0,0.0,0.0,0.0,0.0,0.0,0.0,0.0,0.0,0.0,0.0,0.0,0.0,0.0,0.0,0.0,0.0,0.0,0.0,0.0,0.0,0.0,0.0,0.0,0.0,0.0,0.0,0.0,0.0,0.0,0.0,0.0,0.0,0.0,0.0,0.0,0.0,0.0,0.0,0.0,0.0,0.0,0.0,0.0,0.0,0.0,0.0,0.0,0.0,0.0,0.0,0.0,0.0,0.0,0.0,0.0,0.0,0.0,0.0,0.0,0.0,0.0,0.0,0.0,0.0,0.0,0.0,0.0,0.0,0.0,0.0,0.0,0.0,0.0,0.0,0.0,0.0,0.0,0.0,0.0,0.0,0.0,0.0,0.0,0.0,0.0,0.0,0.0,0.0,0.0,0.0,0.0,0.0,0.0,0.0,0.0,0.0,0.0,0.0,0.0,0.0,0.0,0.0,0.0,0.0,0.0,0.0,0.0,0.0,0.0,0.0,0.0,0.0,0.0,0.0,0.0,0.0,0.0,0.0,0.0,0.0,0.0,0.0,0.0,0.0,0.0,0.0,0.0,0.0,0.0,0.0,0.0,0.0,0.0,0.0,0.0,0.0,0.0,0.0,0.0,0.0,0.0,0.0,0.0,0.0,0.0,0.0,0.0,0.0,0.0,0.0,0.0,0.0,0.0,0.0,0.0,0.0,0.0,0.0,0.0,0.0,0.0,0.0,0.0,0.0,0.0,0.0,0.0,0.0,0.0,0.0,0.0,0.0,0.0,0.0,0.0,0.0,0.0,0.0,0.0,0.0,0.0,0.0,0.0,0.0,0.0,0.0,0.0,0.0,0.0,0.0,0.0,0.0,0.0,0.0,0.0,0.0,0.0,0.0,0.0,0.0,0.0,0.0,0.0,0.0,0.0,0.0,0.0,0.0,0.0,0.0,0.0,0.0,0.0,0.0,0.0,0.0,0.0,0.0,0.0,0.0,0.0,0.0,0.0,0.0,0.0,0.0,0.0,0.0,0.0,0.0,0.0,0.0,0.0,0.0,0.0,0.0,0.0,0.0,0.0,0.0,0.0,0.0,0.0,0.0,0.0,0.0,0.0,0.0,0.0,0.0,0.0,0.0,0.0,0.0,0.0,0.0,0.0,0.0,0.0,0.0,0.0,0.0,0.0,0.0,0.0,0.0,0.0,0.0,0.0,0.0,0.0,0.0,0.0,0.0,0.0,0.0,0.0,0.0,0.0,0.0,0.0,0.0,0.0,0.0,0.0,0.0,0.0,0.0,0.0,0.0,0.0,0.0,0.0,0.0,0.0,0.0,0.0,0.0,0.0,0.0,0.0,0.0,0.0,0.0,0.0,0.0,0.0,0.0,0.0,0.0,0.0,0.0,0.0,0.0,0.0,0.0,0.0,0.0,0.0,0.0,0.0,0.0,0.0,0.0,0.0,0.0,0.0,0.0,0.0,0.0,0.0,0.0,0.0,0.0,0.0,0.0,0.0,0.0,0.0,0.0,0.0,0.0,0.0,0.0,0.0,0.0,0.0,0.0,0.0,0.0,0.0,0.0,0.0,0.0,0.0,0.0,0.0,0.0,0.0,0.0,0.0,0.0,0.0,0.0,0.0,0.0,0.0,0.0,0.0,0.0,0.0,0.0,0.0,0.0,0.0,0.0,0.0,0.0,0.0,0.0,0.0,0.0,0.0,0.0,0.0,0.0,0.0,0.0,0.0,0.0,0.0,0.0,0.0,0.0,0.0,0.0,0.0,0.0,0.0,0.0,0.0,0.0,0.0,0.0,0.0,0.0,0.0,0.0,0.0,0.0,0.0,0.0,0.0,0.0,0.0,0.0,0.0,0.0,0.0,0.0,0.0,0.0,0.0,0.0,0.0,0.0,0.0,0.0,0.0,0.0,0.0,0.0,0.0,0.0,0.0,0.0,0.0,0.0,0.0,0.0,0.0,0.0,0.0,0.0,0.0,0.0,0.0,0.0,0.0,0.0,0.0,0.0,0.0,0.0,0.0,0.0,0.0,0.0,0.0,0.0,0.0,0.0,0.0,0.0,0.0,0.0,0.0,0.0,0.0,0.0,0.0,0.0,0.0,0.0,0.0,0.0,0.0,0.0,0.0,0.0,0.0,0.0,0.0,0.0,0.0,0.0,0.0,0.0,0.0,0.0,0.0,0.0,0.0,0.0,0.0,0.0,0.0,0.0,0.0,0.0,0.0,0.0,0.0,0.0,0.0,0.0,0.0,0.0,0.0,0.0,0.0,0.0,0.0,0.0,0.0,0.0,0.0,0.0,0.0,0.0,0.0,0.0,0.0,0.0,0.0,0.0,0.0,0.0,0.0,0.0,0.0,0.0,0.0,0.0,0.0,0.0,0.0,0.0,0.0,0.0,0.0,0.0,0.0,0.0,0.0,0.0,0.0,0.0,0.0,0.0,0.0,0.0,0.0,0.0,0.0,0.0,0.0,0.0,0.0,0.0,0.0,0.0,0.0,0.0,0.0,0.0,0.0,0.0,0.0,0.0,0.0,0.0,0.0,0.0,0.0,0.0,0.0,0.0,0.0,0.0,0.0,0.0,0.0,0.0,0.0,0.0,0.0,0.0,0.0,0.0,0.0,0.0,0.0,0.0,0.0,0.0,0.0,0.0,0.0,0.0,0.0,0.0,0.0,0.0,0.0,0.0,0.0,0.0,0.0,0.0,0.0,0.0,0.0,0.0,0.0,0.0,0.0,0.0,0.0,0.0,0.0,0.0,0.0,0.0,0.0,0.0,0.0,0.0,0.0,0.0,0.0,0.0,0.0,0.0,0.0,0.0,0.0,0.0,0.0,0.0,0.0,0.0,0.0,0.0,0.0,0.0,0.0,0.0,0.0,0.0,0.0,0.0,0.0,0.0,0.0,0.0,0.0,0.0,0.0,0.0,0.0,0.0,0.0,0.0,0.0,0.0,0.0,0.0,0.0,0.0,0.0,0.0,0.0,0.0,0.0,0.0,0.0,0.0,0.0,-0.0071,0.0,0.0,0.0,0.0,0.0,0.0,0.0,0.0,0.0,0.0,0.0,0.0,0.0,0.0,0.0,0.0,0.0,0.0,0.0,0.0,0.0,0.0,0.0,0.0,0.0,0.0,0.0,0.0,0.0,0.0,0.0,0.0,0.0,0.0,0.0,0.0,0.0,0.0,0.0,0.0,0.0,0.0,0.0,0.0,0.0,0.0,0.0,0.0,0.0,0.0,0.0,0.0,0.0,0.0,0.0,0.0,0.0,0.0,0.0,0.0,0.0,0.0,0.0,0.0,0.0,0.0,0.0,0.0,0.0,0.0,0.0,0.0,0.0,0.0,0.0,0.0,0.0,0.0,0.0,0.0,0.0,0.0,0.0,0.0,0.0,0.0,0.0,0.0,0.0,0.0,0.0,0.0,0.0,0.0,0.0,0.0,0.0,0.0,0.0,0.0,0.0,0.0,0.0,0.0,0.0,0.0,0.0,0.0,0.0,0.0,0.0,-0.0276,-0.0071,0.0,0.0,0.0,0.0,0.0,0.0,0.0,0.0,0.0,0.0,0.0,0.0,0.0,0.0,0.0,0.0,0.0,0.0,0.0,0.0,0.0,0.0,0.0,0.0,0.0,0.0,0.0,0.0,0.0,0.0,0.0,0.0,0.0,0.0,0.0,0.0,0.0,0.0,0.0,0.0,0.0,0.0,0.0,0.0,0.0,0.0,0.0,0.0,0.0,0.0,0.0,0.0,0.0,0.0,0.0,0.0,0.0,0.0,0.0,0.0,0.0,0.0,0.0,0.0,0.0,0.0,0.0,0.0,0.0,0.0,0.0,0.0,0.0,0.0,0.0,0.0,0.0,0.0,0.0,0.0,0.0,0.0,0.0,0.0,0.0,0.0,0.0,0.0,0.0,0.0,0.0,0.0,0.0,0.0,0.0,0.0,0.0,0.0,0.0,0.0,0.0,0.0,0.0,0.0,0.0,0.0,0.0,0.0,0.0,0.0,0.0,-0.0273,0.0,0.0,0.0,0.0,0.0,0.0,0.0,0.0,0.0,0.0,0.0,0.0,0.0,0.0,0.0,0.0,0.0,0.0,0.0,0.0,0.0,0.0,0.0,0.0,0.0,0.0,0.0,0.0,0.0,0.0,0.0,0.0,0.0,0.0,0.0,0.0,0.0,0.0,0.0,0.0,0.0,0.0,0.0,0.0,0.0,0.0,0.0,0.0,0.0,0.0,0.0,0.0,0.0,0.0,0.0,0.0,0.0,0.0,0.0,0.0,0.0,0.0,0.0,0.0,0.0,0.0,0.0,0.0,0.0,0.0,0.0,0.0,0.0,0.0,0.0,0.0,0.0,0.0,0.0,0.0,0.0,0.0,0.0,0.0,0.0,0.0,0.0,0.0,0.0,0.0,0.0,0.0,0.0,0.0,0.0,0.0,0.0,0.0,0.0,0.0,0.0,0.0,0.0,0.0,0.0,0.0,0.0,0.0,0.0,0.0,-0.0866,0.0,0.0,0.0,0.0,0.0,0.0,0.0,0.0,0.0,0.0,0.0,0.0,0.0,0.0,0.0,0.0,0.0,0.0,0.0,0.0,0.0,0.0,0.0,0.0,0.0,0.0,0.0,0.0,0.0,0.0,0.0,0.0,0.0,0.0,0.0,0.0,0.0,0.0,0.0,0.0,0.0,0.0,0.0,0.0,0.0,0.0,0.0,0.0,0.0,0.0,0.0,0.0,0.0,0.0,0.0,0.0,0.0,0.0,0.0,0.0,0.0,0.0,0.0,0.0,0.0,0.0,0.0,0.0,0.0,0.0,0.0,0.0,0.0,0.0,0.0,0.0,0.0,0.0,0.0,0.0,0.0,0.0,0.0,0.0,0.0,0.0,0.0,0.0,0.0,0.0,0.0,0.0,0.0,0.0,0.0,0.0,0.0,0.0,0.0,0.0,0.0,0.0,0.0,0.0,0.0,0.0,0.0,0.0,0.0,0.0,0.0,-0.094,-0.0486,0.0,0.0,0.0,0.0,0.0,0.0,0.0,0.0,0.0,0.0,0.0,0.0,0.0,0.0,0.0,0.0,0.0,0.0,0.0,0.0,0.0,0.0,0.0,0.0,0.0,0.0,0.0,0.0,0.0,0.0,0.0,0.0,0.0,0.0,0.0,0.0,0.0,0.0,0.0,0.0,0.0,0.0,0.0,0.0,0.0,0.0,0.0,0.0,0.0,0.0,0.0,0.0,0.0,0.0,0.0,0.0,0.0,0.0,0.0,0.0,0.0,0.0,0.0,0.0,0.0,0.0,0.0,0.0,0.0,0.0,0.0,0.0,0.0,0.0,0.0,0.0,0.0,0.0,0.0,0.0,0.0,0.0,0.0,0.0,0.0,0.0,0.0,0.0,0.0,0.0,0.0,0.0,0.0,0.0,0.0,0.0,0.0,0.0,0.0,0.0,0.0,0.0,0.0,0.0,0.0,0.0,0.0,0.0,0.0,0.0,-0.0908,-0.0469,0.0,0.0,0.0,0.0,0.0,0.0,0.0,0.0,0.0,0.0,0.0,0.0,0.0,0.0,0.0,0.0,0.0,0.0,0.0,0.0,0.0,0.0,0.0,0.0,0.0,0.0,0.0,0.0,0.0,0.0,0.0,0.0,0.0,0.0,0.0,0.0,0.0,0.0,0.0,0.0,0.0,0.0,0.0,0.0,0.0,0.0,0.0,0.0,0.0,0.0,0.0,0.0,0.0,0.0,0.0,0.0,0.0,0.0,0.0,0.0,0.0,0.0,0.0,0.0,0.0,0.0,0.0,0.0,0.0,0.0,0.0,0.0,0.0,0.0,0.0,0.0,0.0,0.0,0.0,0.0,0.0,0.0,0.0,0.0,0.0,0.0,0.0,0.0,0.0,0.0,0.0,0.0,0.0,0.0,0.0,0.0,0.0,0.0,0.0,0.0,0.0,0.0,0.0,0.0,0.0,0.0,0.0,0.0,0.0,0.0,-0.0921,-0.0462,0.0,0.0,0.0,0.0,0.0,0.0,0.0,0.0,0.0,0.0,0.0,0.0,0.0,0.0,0.0,0.0,0.0,0.0,0.0,0.0,0.0,0.0,0.0,0.0,0.0,0.0,0.0,0.0,0.0,0.0,0.0,0.0,0.0,0.0,0.0,0.0,0.0,0.0,0.0,0.0,0.0,0.0,0.0,0.0,0.0,0.0,0.0,0.0,0.0,0.0,0.0,0.0,0.0,0.0,0.0,0.0,0.0,0.0,0.0,0.0,0.0,0.0,0.0,0.0,0.0,0.0,0.0,0.0,0.0,0.0,0.0,0.0,0.0,0.0,0.0,0.0,0.0,0.0,0.0,0.0,0.0,0.0,0.0,0.0,0.0,0.0,0.0,0.0,0.0,0.0,0.0,0.0,0.0,0.0,0.0,0.0,0.0,0.0,0.0,0.0,0.0,0.0,0.0,0.0,0.0,0.0,0.0,0.0,0.0,0.0,-0.1934,-0.1077,-0.0171,-0.0058,0.0,0.0,0.0,0.0,0.0,0.0,0.0,0.0,0.0,0.0,0.0,0.0,0.0,0.0,0.0,0.0,0.0,0.0,0.0,0.0,0.0,0.0,0.0,0.0,0.0,0.0,0.0,0.0,0.0,0.0,0.0,0.0,0.0,0.0,0.0,0.0,0.0,0.0,0.0,0.0,0.0,0.0,0.0,0.0,0.0,0.0,0.0,0.0,0.0,0.0,0.0,0.0,0.0,0.0,0.0,0.0,0.0,0.0,0.0,0.0,0.0,0.0,0.0,0.0,0.0,0.0,0.0,0.0,0.0,0.0,0.0,0.0,0.0,0.0,0.0,0.0,0.0,0.0,0.0,0.0,0.0,0.0,0.0,0.0,0.0,0.0,0.0,0.0,0.0,0.0,0.0,0.0,0.0,0.0,0.0,0.0,0.0,0.0,0.0,0.0,0.0,0.0,0.0,0.0,0.0,0.0,0.0,0.0,-0.2878,-0.1801,-0.0679,-0.0115,0.0,0.0,0.0,0.0,0.0,0.0,0.0,0.0,0.0,0.0,0.0,0.0,0.0,0.0,0.0,0.0,0.0,0.0,0.0,0.0,0.0,0.0,0.0,0.0,0.0,0.0,0.0,0.0,0.0,0.0,0.0,0.0,0.0,0.0,0.0,0.0,0.0,0.0,0.0,0.0,0.0,0.0,0.0,0.0,0.0,0.0,0.0,0.0,0.0,0.0,0.0,0.0,0.0,0.0,0.0,0.0,0.0,0.0,0.0,0.0,0.0,0.0,0.0,0.0,0.0,0.0,0.0,0.0,0.0,0.0,0.0,0.0,0.0,0.0,0.0,0.0,0.0,0.0,0.0,0.0,0.0,0.0,0.0,0.0,0.0,0.0,0.0,0.0,0.0,0.0,0.0,0.0,0.0,0.0,0.0,0.0,0.0,0.0,0.0,0.0,0.0,0.0,0.0,0.0,0.0,0.0,0.0,0.0,-0.3091,-0.2403,-0.1718,-0.0345,0.0,0.0,0.0,0.0,0.0,0.0,0.0,0.0,0.0,0.0,0.0,0.0,0.0,0.0,0.0,0.0,0.0,0.0,0.0,0.0,0.0,0.0,0.0,0.0,0.0,0.0,0.0,0.0,0.0,0.0,0.0,0.0,0.0,0.0,0.0,0.0,0.0,0.0,0.0,0.0,0.0,0.0,0.0,0.0,0.0,0.0,0.0,0.0,0.0,0.0,0.0,0.0,0.0,0.0,0.0,0.0,0.0,0.0,0.0,0.0,0.0,0.0,0.0,0.0,0.0,0.0,0.0,0.0,0.0,0.0,0.0,0.0,0.0,0.0,0.0,0.0,0.0,0.0,0.0,0.0,0.0,0.0,0.0,0.0,0.0,0.0,0.0,0.0,0.0,0.0,0.0,0.0,0.0,0.0,0.0,0.0,0.0,0.0,0.0,0.0,0.0,0.0,0.0,0.0,0.0,0.0,0.0,0.0,-0.2934,-0.2049,-0.1151,-0.0233,0.0,0.0,0.0,0.0,0.0,0.0,0.0,0.0,0.0,0.0,0.0,0.0,0.0,0.0,0.0,0.0,0.0,0.0,0.0,0.0,0.0,0.0,0.0,0.0,0.0,0.0,0.0,0.0,0.0,0.0,0.0,0.0,0.0,0.0,0.0,0.0,0.0,0.0,0.0,0.0,0.0,0.0,0.0,0.0,0.0,0.0,0.0,0.0,0.0,0.0,0.0,0.0,0.0,0.0,0.0,0.0,0.0,0.0,0.0,0.0,0.0,0.0,0.0,0.0,0.0,0.0,0.0,0.0,0.0,0.0,0.0,0.0,0.0,0.0,0.0,0.0,0.0,0.0,0.0,0.0,0.0,0.0,0.0,0.0,0.0,0.0,0.0,0.0,0.0,0.0,0.0,0.0,0.0,0.0,0.0,0.0,0.0,0.0,0.0,0.0,0.0,0.0,0.0,0.0,0.0,0.0,0.0,0.0,-0.2964,-0.2032,-0.1087,-0.0233,0.0,0.0,0.0,0.0,0.0,0.0,0.0,0.0,0.0,0.0,0.0,0.0,0.0,0.0,0.0,0.0,0.0,0.0,0.0,0.0,0.0,0.0,0.0,0.0,0.0,0.0,0.0,0.0,0.0,0.0,0.0,0.0,0.0,0.0,0.0,0.0,0.0,0.0,0.0,0.0,0.0,0.0,0.0,0.0,0.0,0.0,0.0,0.0,0.0,0.0,0.0,0.0,0.0,0.0,0.0,0.0,0.0,0.0,0.0,0.0,0.0,0.0,0.0,0.0,0.0,0.0,0.0,0.0,0.0,0.0,0.0,0.0,0.0,0.0,0.0,0.0,0.0,0.0,0.0,0.0,0.0,0.0,0.0,0.0,0.0,0.0,0.0,0.0,0.0,0.0,0.0,0.0,0.0,0.0,0.0,0.0,0.0,0.0,0.0,0.0,0.0,0.0,0.0,0.0,0.0,0.0,0.0,0.0,-0.3073,-0.2459,-0.1853,-0.0343,0.0,0.0,0.0,0.0,0.0,0.0,0.0,0.0,0.0,0.0,0.0,0.0,0.0,0.0,0.0,0.0,0.0,0.0,0.0,0.0,0.0,0.0,0.0,0.0,0.0,0.0,0.0,0.0,0.0,0.0,0.0,0.0,0.0,0.0,0.0,0.0,0.0,0.0,0.0,0.0,0.0,0.0,0.0,0.0,0.0,0.0,0.0,0.0,0.0,0.0,0.0,0.0,0.0,0.0,0.0,0.0,0.0,0.0,0.0,0.0,0.0,0.0,0.0,0.0,0.0,0.0,0.0,0.0,0.0,0.0,0.0,0.0,0.0,0.0,0.0,0.0,0.0,0.0,0.0,0.0,0.0,0.0,0.0,0.0,0.0,0.0,0.0,0.0,0.0,0.0,0.0,0.0,0.0,0.0,0.0,0.0,0.0,0.0,0.0,0.0,0.0,0.0,0.0,0.0,0.0,0.0,0.0,0.0,-0.1293,-0.1017,-0.0801,-0.0175,0.0,0.0,0.0,0.0,0.0,0.0,0.0,0.0,0.0,0.0,0.0,0.0,0.0,0.0,0.0,0.0,0.0,0.0,0.0,0.0,0.0,0.0,0.0,0.0,0.0,0.0,0.0,0.0,0.0,0.0,0.0,0.0,0.0,0.0,0.0,0.0,0.0,0.0,0.0,0.0,0.0,0.0,0.0,0.0,0.0,0.0,0.0,0.0,0.0,0.0,0.0,0.0,0.0,0.0,0.0,0.0,0.0,0.0,0.0,0.0,0.0,0.0,0.0,0.0,0.0,0.0,0.0,0.0,0.0,0.0,0.0,0.0,0.0,0.0,0.0,0.0,0.0,0.0,0.0,0.0,0.0,0.0,0.0,0.0,0.0,0.0,0.0,0.0,0.0,0.0,0.0,0.0,0.0,0.0,0.0,0.0,0.0,0.0,0.0,0.0,0.0,0.0,0.0,0.0,0.0,0.0,0.0,0.0,-0.045,-0.0341,-0.0173,-0.0059,0.0,0.0,0.0,0.0,0.0,0.0,0.0,0.0,0.0,0.0,0.0,0.0,0.0,0.0,0.0,0.0,0.0,0.0,0.0,0.0,0.0,0.0,0.0,0.0,0.0,0.0,0.0,0.0,0.0,0.0,0.0,0.0,0.0,0.0,0.0,0.0,0.0,0.0,0.0,0.0,0.0,0.0,0.0,0.0,0.0,0.0,0.0,0.0,0.0,0.0,0.0,0.0,0.0,0.0,0.0,0.0,0.0,0.0,0.0,0.0,0.0,0.0,0.0,0.0,0.0,0.0,0.0,0.0,0.0,0.0,0.0,0.0,0.0,0.0,0.0,0.0,0.0,0.0,0.0,0.0,0.0,0.0,0.0,0.0,0.0,0.0,0.0,0.0,0.0,0.0,0.0,0.0,0.0,0.0,0.0,0.0,0.0,0.0,0.0,0.0,0.0,0.0,0.0,0.0,0.0,0.0,0.0,0.0,-0.0338,-0.0171,0.0,0.0,0.0,0.0,0.0,0.0,0.0,0.0,0.0,0.0,0.0,0.0,0.0,0.0,0.0,0.0,0.0,0.0,0.0,0.0,0.0,0.0,0.0,0.0,0.0,0.0,0.0,0.0,0.0,0.0,0.0,0.0,0.0,0.0,0.0,0.0,0.0,0.0,0.0,0.0,0.0,0.0,0.0,0.0,0.0,0.0,0.0,0.0,0.0,0.0,0.0,0.0,0.0,0.0,0.0,0.0,0.0,0.0,0.0,0.0,0.0,0.0,0.0,0.0,0.0,0.0,0.0,0.0,0.0,0.0,0.0,0.0,0.0,0.0,0.0,0.0,0.0,0.0,0.0,0.0,0.0,0.0,0.0,0.0,0.0,0.0,0.0,0.0,0.0,0.0,0.0,0.0,0.0,0.0,0.0,0.0,0.0,0.0,0.0,0.0,0.0,0.0,0.0,0.0,0.0,0.0,0.0,0.0,0.0,0.0,-0.0058,-0.0058,0.0,0.0,0.0,0.0,0.0,0.0,0.0,0.0,0.0,0.0,0.0,0.0,0.0,0.0,0.0,0.0,0.0,0.0,0.0,0.0,0.0,0.0,0.0,0.0,0.0,0.0,0.0,0.0,0.0,0.0,0.0,0.0,0.0,0.0,0.0,0.0,0.0,0.0,0.0,0.0,0.0,0.0,0.0,0.0,0.0,0.0,0.0,0.0,0.0,0.0,0.0,0.0,0.0,0.0,0.0,0.0,0.0,0.0,0.0,0.0,0.0,0.0,0.0,0.0,0.0,0.0,0.0,0.0,0.0,0.0,0.0,0.0,0.0,0.0,0.0,0.0,0.0,0.0,0.0,0.0,0.0,0.0,0.0,0.0,0.0,0.0,0.0,0.0,0.0,0.0,0.0,0.0,0.0,0.0,0.0,0.0,0.0,0.0,0.0,0.0,0.0,0.0,0.0,0.0,0.0,0.0,0.0,0.0,0.0,0.0,0.0,0.0,0.0,0.0,0.0,0.0,0.0,0.0,0.0,0.0,0.0,0.0,0.0,0.0,0.0,0.0,0.0,0.0,0.0,0.0,0.0,0.0,0.0,0.0,0.0,0.0,0.0,0.0,0.0,0.0,0.0,0.0,0.0,0.0,0.0,0.0,0.0,0.0,0.0,0.0,0.0,0.0,0.0,0.0,0.0,0.0,0.0,0.0,0.0,0.0,0.0,0.0,0.0,0.0,0.0,0.0,0.0,0.0,0.0,0.0,0.0,0.0,0.0,0.0,0.0,0.0,0.0,0.0,0.0,0.0,0.0,0.0,0.0,0.0,0.0,0.0,0.0,0.0,0.0,0.0,0.0,0.0,0.0,0.0,0.0,0.0,0.0,0.0,0.0,0.0,0.0,0.0,0.0,0.0,0.0,0.0,0.0,0.0,0.0,0.0,0.0,0.0,0.0,0.0,0.0,0.0,0.0,0.0,0.0,0.0,0.0,0.0,0.0,0.0,0.0,0.0,0.0,0.0,0.0,0.0,0.0,0.0,0.0,0.0,0.0,0.0,0.0,0.0,0.0,0.0,0.0,0.0,0.0,0.0,0.0,0.0,0.0,0.0,0.0,0.0,0.0,0.0,0.0,0.0,0.0,0.0,0.0,0.0,0.0,0.0,0.0,0.0,0.0,0.0,0.0,0.0,0.0,0.0,0.0,0.0,0.0,0.0,0.0,0.0,0.0,0.0,0.0,0.0,0.0,0.0,0.0,0.0,0.0,0.0,0.0,0.0,0.0,0.0,0.0,0.0,0.0,0.0,0.0,0.0,0.0,0.0,0.0,0.0,0.0,0.0,0.0,0.0,0.0,0.0,0.0,0.0,0.0,0.0,0.0,0.0,0.0,0.0,0.0,0.0,0.0,0.0,0.0,0.0,0.0,0.0,0.0,0.0,0.0,0.0,0.0,0.0,0.0,0.0,0.0,0.0,0.0,0.0,0.0,0.0157,0.0,0.0,0.0,0.0,0.0,0.0,0.0,0.0,0.0,0.0,0.0,0.0,0.0,0.0,0.0,0.0,0.0,0.0,0.0,0.0,0.0,0.0,0.0,0.0,0.0,0.0,0.0,0.0,0.0,0.0,0.0,0.0,0.0,0.0,0.0,0.0,0.0,0.0,0.0,0.0,0.0,0.0,0.0,0.0,0.0,0.0,0.0,0.0,0.0,0.0,0.0,0.0,0.0,0.0,0.0,0.0,0.0,0.0,0.0,0.0,0.0,0.0,0.0,0.0,0.0,0.0,0.0,0.0,0.0,0.0,0.0,0.0,0.0,0.0,0.0,0.0,0.0,0.0,0.0,0.0,0.0,0.0,0.0,0.0,0.0,0.0,0.0,0.0,0.0,0.0,0.0,0.0,0.0,0.0,0.0,0.0,0.0,0.0,0.0,0.0,0.0,0.0,0.0,0.0,0.0,0.0,0.0,0.0,0.0,0.0,0.0,0.0696,0.0,0.0,0.0,0.0,0.0,0.0,0.0,0.0,0.0,0.0,0.0,0.0,0.0,0.0,0.0,0.0,0.0,0.0,0.0,0.0,0.0,0.0,0.0,0.0,0.0,0.0,0.0,0.0,0.0,0.0,0.0,0.0,0.0,0.0,0.0,0.0,0.0,0.0,0.0,0.0,0.0,0.0,0.0,0.0,0.0,0.0,0.0,0.0,0.0,0.0,0.0,0.0,0.0,0.0,0.0,0.0,0.0,0.0,0.0,0.0,0.0,0.0,0.0,0.0,0.0,0.0,0.0,0.0,0.0,0.0,0.0,0.0,0.0,0.0,0.0,0.0,0.0,0.0,0.0,0.0,0.0,0.0,0.0,0.0,0.0,0.0,0.0,0.0,0.0,0.0,0.0,0.0,0.0,0.0,0.0,0.0,0.0,0.0,0.0,0.0,0.0,0.0,0.0,0.0,0.0,0.0,0.0,0.0,0.0,0.0,0.0,0.0854,0.0,0.0,0.0,0.0,0.0,0.0,0.0,0.0,0.0,0.0,0.0,0.0,0.0,0.0,0.0,0.0,0.0,0.0,0.0,0.0,0.0,0.0,0.0,0.0,0.0,0.0,0.0,0.0,0.0,0.0,0.0,0.0,0.0,0.0,0.0,0.0,0.0,0.0,0.0,0.0,0.0,0.0,0.0,0.0,0.0,0.0,0.0,0.0,0.0,0.0,0.0,0.0,0.0,0.0,0.0,0.0,0.0,0.0,0.0,0.0,0.0,0.0,0.0,0.0,0.0,0.0,0.0,0.0,0.0,0.0,0.0,0.0,0.0,0.0,0.0,0.0,0.0,0.0,0.0,0.0,0.0,0.0,0.0,0.0,0.0,0.0,0.0,0.0,0.0,0.0,0.0,0.0,0.0,0.0,0.0,0.0,0.0,0.0,0.0,0.0,0.0,0.0,0.0,0.0,0.0,0.0,0.0,0.0,0.0,0.0,0.0,0.1081,0.0,0.0,0.0,0.0,0.0,0.0,0.0,0.0,0.0,0.0,0.0,0.0,0.0,0.0,0.0,0.0,0.0,0.0,0.0,0.0,0.0,0.0,0.0,0.0,0.0,0.0,0.0,0.0,0.0,0.0,0.0,0.0,0.0,0.0,0.0,0.0,0.0,0.0,0.0,0.0,0.0,0.0,0.0,0.0,0.0,0.0,0.0,0.0,0.0,0.0,0.0,0.0,0.0,0.0,0.0,0.0,0.0,0.0,0.0,0.0,0.0,0.0,0.0,0.0,0.0,0.0,0.0,0.0,0.0,0.0,0.0,0.0,0.0,0.0,0.0,0.0,0.0,0.0,0.0,0.0,0.0,0.0,0.0,0.0,0.0,0.0,0.0,0.0,0.0,0.0,0.0,0.0,0.0,0.0,0.0,0.0,0.0,0.0,0.0,0.0,0.0,0.0,0.0,0.0,0.0,0.0,0.0,0.0,0.0,0.0,0.0,0.1655,0.0,0.0,0.0,0.0,0.0,0.0,0.0,0.0,0.0,0.0,0.0,0.0,0.0,0.0,0.0,0.0,0.0,0.0,0.0,0.0,0.0,0.0,0.0,0.0,0.0,0.0,0.0,0.0,0.0,0.0,0.0,0.0,0.0,0.0,0.0,0.0,0.0,0.0,0.0,0.0,0.0,0.0,0.0,0.0,0.0,0.0,0.0,0.0,0.0,0.0,0.0,0.0,0.0,0.0,0.0,0.0,0.0,0.0,0.0,0.0,0.0,0.0,0.0,0.0,0.0,0.0,0.0,0.0,0.0,0.0,0.0,0.0,0.0,0.0,0.0,0.0,0.0,0.0,0.0,0.0,0.0,0.0,0.0,0.0,0.0,0.0,0.0,0.0,0.0,0.0,0.0,0.0,0.0,0.0,0.0,0.0,0.0,0.0,0.0,0.0,0.0,0.0,0.0,0.0,0.0,0.0,0.0,0.0,0.0548,0.1636,0.154,0.319,0.0,0.0,0.0,0.0,0.0,0.0,0.0,0.0,0.0,0.0,0.0,0.0,0.0,0.0,0.0,0.0,0.0,0.0,0.0,0.0,0.0,0.0,0.0,0.0,0.0,0.0,0.0,0.0,0.0,0.0,0.0,0.0,0.0,0.0,0.0,0.0,0.0,0.0,0.0,0.0,0.0,0.0,0.0,0.0,0.0,0.0,0.0,0.0,0.0,0.0,0.0,0.0,0.0,0.0,0.0,0.0,0.0,0.0,0.0,0.0,0.0,0.0,0.0,0.0,0.0,0.0,0.0,0.0,0.0,0.0,0.0,0.0,0.0,0.0,0.0,0.0,0.0,0.0,0.0,0.0,0.0,0.0,0.0,0.0,0.0,0.0,0.0,0.0,0.0,0.0,0.0,0.0,0.0,0.0,0.0,0.0,0.0,0.0,0.0,0.0,0.0,0.0,0.0,0.0,0.0,0.0,0.0,0.0,0.0856,0.24,0.2382,0.4121,0.0,0.0,0.0,0.0,0.0,0.0,0.0,0.0,0.0,0.0,0.0,0.0,0.0,0.0,0.0,0.0,0.0,0.0,0.0,0.0,0.0,0.0,0.0,0.0,0.0,0.0,0.0,0.0,0.0,0.0,0.0,0.0,0.0,0.0,0.0,0.0,0.0,0.0,0.0,0.0,0.0,0.0,0.0,0.0,0.0,0.0,0.0,0.0,0.0,0.0,0.0,0.0,0.0,0.0,0.0,0.0,0.0,0.0,0.0,0.0,0.0,0.0,0.0,0.0,0.0,0.0,0.0,0.0,0.0,0.0,0.0,0.0,0.0,0.0,0.0,0.0,0.0,0.0,0.0,0.0,0.0,0.0,0.0,0.0,0.0,0.0,0.0,0.0,0.0,0.0,0.0,0.0,0.0,0.0,0.0,0.0,0.0,0.0,0.0,0.0,0.0,0.0,0.0,0.0,0.0,0.0,0.0,0.0,0.0843,0.2423,0.2651,0.4492,0.0,0.0,0.0,0.0,0.0,0.0,0.0,0.0,0.0,0.0,0.0,0.0,0.0,0.0,0.0,0.0,0.0,0.0,0.0,0.0,0.0,0.0,0.0,0.0,0.0,0.0,0.0,0.0,0.0,0.0,0.0,0.0,0.0,0.0,0.0,0.0,0.0,0.0,0.0,0.0,0.0,0.0,0.0,0.0,0.0,0.0,0.0,0.0,0.0,0.0,0.0,0.0,0.0,0.0,0.0,0.0,0.0,0.0,0.0,0.0,0.0,0.0,0.0,0.0,0.0,0.0,0.0,0.0,0.0,0.0,0.0,0.0,0.0,0.0,0.0,0.0,0.0,0.0,0.0,0.0,0.0,0.0,0.0,0.0,0.0,0.0,0.0,0.0,0.0,0.0,0.0,0.0,0.0,0.0,0.0,0.0,0.0,0.0,0.0,0.0,0.0,0.0,0.0,0.0,0.0,0.0,0.0,0.0,0.1481,0.4422,0.6959,0.8535,0.0,0.0,0.0,0.0,0.0,0.0,0.0,0.0,0.0,0.0,0.0,0.0,0.0,0.0,0.0,0.0,0.0,0.0,0.0,0.0,0.0,0.0,0.0,0.0,0.0,0.0,0.0,0.0,0.0,0.0,0.0,0.0,0.0,0.0,0.0,0.0,0.0,0.0,0.0,0.0,0.0,0.0,0.0,0.0,0.0,0.0,0.0,0.0,0.0,0.0,0.0,0.0,0.0,0.0,0.0,0.0,0.0,0.0,0.0,0.0,0.0,0.0,0.0,0.0,0.0,0.0,0.0,0.0,0.0,0.0,0.0,0.0,0.0,0.0,0.0,0.0,0.0,0.0,0.0,0.0,0.0,0.0,0.0,0.0,0.0,0.0,0.0,0.0,0.0,0.0,0.0,0.0,0.0,0.0,0.0,0.0,0.0,0.0,0.0,0.0,0.0,0.0,0.0,0.0,0.0,0.0317,0.1031,0.1019,0.2802,0.622,0.889,1.0144,-0.0056,0.0,0.0,0.0,0.0,0.0,0.0,0.0,0.0,0.0,0.0,0.0,0.0,0.0,0.0,0.0,0.0,0.0,0.0,0.0,0.0,0.0,0.0,0.0,0.0,0.0,0.0,0.0,0.0,0.0,0.0,0.0,0.0,0.0,0.0,0.0,0.0,0.0,0.0,0.0,0.0,0.0,0.0,0.0,0.0,0.0,0.0,0.0,0.0,0.0,0.0,0.0,0.0,0.0,0.0,0.0,0.0,0.0,0.0,0.0,0.0,0.0,0.0,0.0,0.0,0.0,0.0,0.0,0.0,0.0,0.0,0.0,0.0,0.0,0.0,0.0,0.0,0.0,0.0,0.0,0.0,0.0,0.0,0.0,0.0,0.0,0.0,0.0,0.0,0.0,0.0,0.0,0.0,0.0,0.0,0.0,0.0,0.0,0.0,0.0,0.0,0.0,0.0,0.0,0.0,0.0953,0.2742,0.2793,0.4401,0.7581,0.9319,1.0204,-0.0227,0.0,0.0,0.0,0.0,0.0,0.0,0.0,0.0,0.0,0.0,0.0,0.0,0.0,0.0,0.0,0.0,0.0,0.0,0.0,0.0,0.0,0.0,0.0,0.0,0.0,0.0,0.0,0.0,0.0,0.0,0.0,0.0,0.0,0.0,0.0,0.0,0.0,0.0,0.0,0.0,0.0,0.0,0.0,0.0,0.0,0.0,0.0,0.0,0.0,0.0,0.0,0.0,0.0,0.0,0.0,0.0,0.0,0.0,0.0,0.0,0.0,0.0,0.0,0.0,0.0,0.0,0.0,0.0,0.0,0.0,0.0,0.0,0.0,0.0,0.0,0.0,0.0,0.0,0.0,0.0,0.0,0.0,0.0,0.0,0.0,0.0,0.0,0.0,0.0,0.0,0.0,0.0,0.0,0.0,0.0,0.0,0.0,0.0,0.0,0.0,0.0,0.0,0.0,0.0,0.1509,0.4544,0.4613,0.5755,0.7865,0.9663,1.053,0.0,0.0,0.0,-0.0168,0.0,0.0,0.0,0.0,0.0,0.0,0.0,0.0,0.0,0.0,0.0,0.0,0.0,0.0,0.0,0.0,0.0,0.0,0.0,0.0,0.0,0.0,0.0,0.0,0.0,0.0,0.0,0.0,0.0,0.0,0.0,0.0,0.0,0.0,0.0,0.0,0.0,0.0,0.0,0.0,0.0,0.0,0.0,0.0,0.0,0.0,0.0,0.0,0.0,0.0,0.0,0.0,0.0,0.0,0.0,0.0,0.0,0.0,0.0,0.0,0.0,0.0,0.0,0.0,0.0,0.0,0.0,0.0,0.0,0.0,0.0,0.0,0.0,0.0,0.0,0.0,0.0,0.0,0.0,0.0,0.0,0.0,0.0,0.0,0.0,0.0,0.0,0.0,0.0,0.0,0.0,0.0,0.0,0.0,0.0,0.0,0.0,0.0,0.0,0.0,0.0799,0.2459,0.5014,0.5874,0.7244,0.9005,1.0061,1.0503,0.0,0.0,0.0,0.0,0.0,-0.0336,0.0,0.0,0.0,0.0,0.0,0.0,0.0,0.0,0.0,0.0,0.0,0.0,0.0,0.0,0.0,0.0,0.0,0.0,0.0,0.0,0.0,0.0,0.0,0.0,0.0,0.0,0.0,0.0,0.0,0.0,0.0,0.0,0.0,0.0,0.0,0.0,0.0,0.0,0.0,0.0,0.0,0.0,0.0,0.0,0.0,0.0,0.0,0.0,0.0,0.0,0.0,0.0,0.0,0.0,0.0,0.0,0.0,0.0,0.0,0.0,0.0,0.0,0.0,0.0,0.0,0.0,0.0,0.0,0.0,0.0,0.0,0.0,0.0,0.0,0.0,0.0,0.0,0.0,0.0,0.0,0.0,0.0,0.0,0.0,0.0,0.0,0.0,0.0,0.0,0.0,0.0,0.0,0.0,0.0,0.0,0.0,0.0159,0.0478,0.183,0.348,0.5483,0.6811,0.8384,1.0057,1.0259,1.0362,0.0,0.0,0.0,0.0,-0.2407,0.0,0.0,0.0,0.0,0.0,0.0,0.0,0.0,0.0,0.0,0.0,0.0,0.0,0.0,0.0,0.0,0.0,0.0,0.0,0.0,0.0,0.0,0.0,0.0,0.0,0.0,0.0,0.0,0.0,0.0,0.0,0.0,0.0,0.0,0.0,0.0,0.0,0.0,0.0,0.0,0.0,0.0,0.0,0.0,0.0,0.0,0.0,0.0,0.0,0.0,0.0,0.0,0.0,0.0,0.0,0.0,0.0,0.0,0.0,0.0,0.0,0.0,0.0,0.0,0.0,0.0,0.0,0.0,0.0,0.0,0.0,0.0,0.0,0.0,0.0,0.0,0.0,0.0,0.0,0.0,0.0,0.0,0.0,0.0,0.0,0.0,0.0,0.0,0.0,0.0,0.0,0.0,0.0,0.0,0.0,0.0,0.0,0.0708,0.2199,0.2434,0.4077,0.7201,0.7435,0.842,1.0182,1.021,1.028,0.0,0.0,0.0,0.0,0.0,0.0,-0.2848,0.0,-0.1908,0.0,0.0,0.0,0.0,0.0,0.0,0.0,0.0,0.0,0.0,0.0,0.0,0.0,0.0,0.0,0.0,0.0,0.0,0.0,0.0,0.0,0.0,0.0,0.0,0.0,0.0,0.0,0.0,0.0,0.0,0.0,0.0,0.0,0.0,0.0,0.0,0.0,0.0,0.0,0.0,0.0,0.0,0.0,0.0,0.0,0.0,0.0,0.0,0.0,0.0,0.0,0.0,0.0,0.0,0.0,0.0,0.0,0.0,0.0,0.0,0.0,0.0,0.0,0.0,0.0,0.0,0.0,0.0,0.0,0.0,0.0,0.0,0.0,0.0,0.0,0.0,0.0,0.0,0.0,0.0,0.0,0.0,0.0,0.0,0.0,0.0,0.0,0.0,0.0,0.0,0.0,0.0,0.0,0.0785,0.2429,0.3447,0.5089,0.7513,0.8453,0.9339,1.0101,1.0242,1.0335,-0.6019,0.0,0.0,0.0,0.0,0.0,0.0,0.0,0.0,0.0,0.0,0.0,0.0,0.0,0.0,-0.0057,0.0,0.0,0.0,0.0,0.0,0.0,0.0,0.0,0.0,0.0,0.0,0.0,0.0,0.0,0.0,0.0,0.0,0.0,0.0,0.0,0.0,0.0,0.0,0.0,0.0,0.0,0.0,0.0,0.0,0.0,0.0,0.0,0.0,0.0,0.0,0.0,0.0,0.0,0.0,0.0,0.0,0.0,0.0,0.0,0.0,0.0,0.0,0.0,0.0,0.0,0.0,0.0,0.0,0.0,0.0,0.0,0.0,0.0,0.0,0.0,0.0,0.0,0.0,0.0,0.0,0.0,0.0,0.0,0.0,0.0,0.0,0.0,0.0,0.0,0.0,0.0,0.0,0.0,0.0,0.0,0.0,0.0,0.0,0.0,0.0,0.0,0.102,0.3133,0.4385,0.603,0.8219,0.9392,1.0019,1.0025,1.0204,1.0286,0.0,0.0,0.0,-0.7072,0.0,0.0,0.0,0.0,-0.358,0.0,0.0,0.0,0.0,0.0,-0.1345,-0.0168,0.0,0.0,0.0,0.0,0.0,0.0,0.0,0.0,0.0,0.0,0.0,0.0,0.0,0.0,0.0,0.0,0.0,0.0,0.0,0.0,0.0,0.0,0.0,0.0,0.0,0.0,0.0,0.0,0.0,0.0,0.0,0.0,0.0,0.0,0.0,0.0,0.0,0.0,0.0,0.0,0.0,0.0,0.0,0.0,0.0,0.0,0.0,0.0,0.0,0.0,0.0,0.0,0.0,0.0,0.0,0.0,0.0,0.0,0.0,0.0,0.0,0.0,0.0,0.0,0.0,0.0,0.0,0.0,0.0,0.0,0.0,0.0,0.0,0.0,0.0,0.0,0.0,0.0,0.0,0.0,0.0,0.0,0.0,0.0,0.0,0.0,0.1569,0.4857,0.4936,0.6655,0.9942,0.9942,1.0019,1.0019,1.003,1.003,0.0,0.0,-0.6997,-0.7035,0.0,0.0,0.0,0.0,0.0,0.0,0.0,0.0,0.0,0.0,-0.2574,-0.14,-0.1176,-0.0898,0.0,0.0,0.0,0.0,0.0,0.0,0.0,0.0,0.0,0.0,0.0,0.0,0.0,0.0,0.0,0.0,0.0,0.0,0.0,0.0,0.0,0.0,0.0,0.0,0.0,0.0,0.0,0.0,0.0,0.0,0.0,0.0,0.0,0.0,0.0,0.0,0.0,0.0,0.0,0.0,0.0,0.0,0.0,0.0,0.0,0.0,0.0,0.0,0.0,0.0,0.0,0.0,0.0,0.0,0.0,0.0,0.0,0.0,0.0,0.0,0.0,0.0,0.0,0.0,0.0,0.0,0.0,0.0,0.0,0.0,0.0,0.0,0.0,0.0,0.0,0.0,0.0,0.0,0.0,0.0,0.0,0.0,0.0,0.0,0.1569,0.4936,0.5014,0.668,1.0139,1.0057,1.0063,1.0139,1.0057,1.0063,-0.6747,-0.6796,0.0,-0.691,-0.6921,0.0,-0.7122,0.0,0.0,0.0,0.0,0.0,0.0,0.0,-0.386,-0.263,-0.2071,-0.14,0.0,0.0,0.0,0.0,0.0,0.0,0.0,0.0,0.0,0.0,0.0,0.0,0.0,0.0,0.0,0.0,0.0,0.0,0.0,0.0,0.0,0.0,0.0,0.0,0.0,0.0,0.0,0.0,0.0,0.0,0.0,0.0,0.0,0.0,0.0,0.0,0.0,0.0,0.0,0.0,0.0,0.0,0.0,0.0,0.0,0.0,0.0,0.0,0.0,0.0,0.0,0.0,0.0,0.0,0.0,0.0,0.0,0.0,0.0,0.0,0.0,0.0,0.0,0.0,0.0,0.0,0.0,0.0,0.0,0.0,0.0,0.0,0.0,0.0,0.0,0.0,0.0,0.0,0.0,0.0,0.0,0.0,0.0,0.0549,0.22,0.5044,0.5573,0.7323,1.0204,1.0079,1.0063,1.0134,1.0057,1.0063]},{"header":{"parameterUnit":"m.s-1","parameterCategory":1,"la1":30.6,"la2":29.2853,"lo1":-89.7004,"lo2":-87.6739,"dy":0.0162,"dx":0.0183,"nx":112,"ny":82,"refTime":"2023-10-02T12:00:00:Z","depth":0,"parameterNumber":3,"parameterNumberName":"V-component_of_WINDS"},"data":[0.0,0.0,0.0,0.0,0.0,0.0,0.0,0.0,0.0,0.0,0.0,0.0,0.0,0.0,0.0,0.0,0.0,0.0,0.0,0.0,0.0,0.0,0.0,0.0,0.0,0.0,0.0,0.0,0.0,0.0,0.0,0.0,0.0,0.0,0.0,0.0,0.0,0.0,0.0,0.0,0.0,0.0,0.0,0.0,0.0,0.0,0.0,0.0,0.0,0.0,0.0,0.0,0.0,0.0,0.0,0.0,0.0,0.0,0.0,0.0,0.0,0.0,0.0,0.0,0.0,0.0,0.0,0.0,0.0,0.0,0.0,0.0,0.0,0.0,0.0,0.0,0.0,0.0,0.0,0.0,0.0,0.0,0.0,0.0,0.0,0.0,0.0,0.0,0.0,0.0,3.8752,3.9514,3.9589,3.9589,3.9589,3.9589,3.9552,3.9401,0.0,0.0,0.0,0.0,0.0,0.0,0.0,0.0,0.0,0.0,0.0,0.0,0.0,0.0,0.0,0.0,0.0,0.0,0.0,0.0,0.0,0.0,0.0,0.0,0.0,0.0,0.0,0.0,0.0,0.0,0.0,0.0,0.0,0.0,0.0,0.0,0.0,0.0,0.0,0.0,0.0,0.0,0.0,0.0,0.0,0.0,0.0,0.0,0.0,0.0,0.0,0.0,0.0,0.0,0.0,0.0,0.0,0.0,0.0,0.0,0.0,0.0,0.0,0.0,0.0,0.0,0.0,0.0,0.0,0.0,0.0,0.0,0.0,0.0,0.0,0.0,0.0,0.0,0.0,0.0,0.0,0.0,0.0,0.0,0.0,0.0,0.0,0.0,0.0,0.0,0.0,0.0,0.0,0.0,0.0,0.0,0.0,0.0,0.0,0.0,0.0,0.0,0.0,0.0,3.9199,3.9577,3.9589,3.9589,3.9589,3.9589,3.9289,3.8525,0.0,0.0,0.0,0.0,0.0,0.0,0.0,0.0,0.0,0.0,0.0,0.0,0.0,0.0,0.0,0.0,0.0,0.0,0.0,0.0,0.0,0.0,0.0,0.0,0.0,0.0,0.0,0.0,0.0,0.0,0.0,0.0,0.0,0.0,0.0,0.0,0.0,0.0,0.0,0.0,0.0,0.0,0.0,0.0,0.0,0.0,0.0,0.0,0.0,0.0,0.0,0.0,0.0,0.0,0.0,0.0,0.0,0.0,0.0,0.0,0.0,0.0,0.0,0.0,0.0,0.0,0.0,0.0,0.0,0.0,0.0,0.0,0.0,0.0,0.0,0.0,0.0,0.0,0.0,0.0,0.0,0.0,0.0,0.0,0.0,0.0,0.0,0.0,0.0,0.0,0.0,0.0,0.0,0.0,0.0,0.0,0.0,0.0,0.0,0.0,0.0,0.0,0.0,3.9202,3.9133,3.9349,3.9283,3.9256,3.9362,3.9375,3.9276,3.9014,3.9364,0.0,0.0,0.0,0.0,0.0,0.0,0.0,0.0,0.0,0.0,0.0,0.0,0.0,0.0,0.0,0.0,0.0,0.0,0.0,0.0,0.0,0.0,0.0,0.0,0.0,0.0,0.0,0.0,0.0,0.0,0.0,0.0,0.0,0.0,0.0,0.0,0.0,0.0,0.0,0.0,0.0,0.0,0.0,0.0,0.0,0.0,0.0,0.0,0.0,0.0,0.0,0.0,0.0,0.0,0.0,0.0,0.0,0.0,0.0,0.0,0.0,0.0,0.0,0.0,0.0,0.0,0.0,0.0,0.0,0.0,0.0,0.0,0.0,0.0,0.0,0.0,0.0,0.0,0.0,0.0,0.0,0.0,0.0,0.0,0.0,0.0,0.0,0.0,0.0,0.0,0.0,0.0,0.0,0.0,0.0,0.0,0.0,0.0,0.0,0.0,0.0,0.0,3.9649,3.9677,3.9842,3.957,3.9417,3.9544,3.9408,3.9375,3.9577,3.9589,0.0,0.0,0.0,0.0,0.0,0.0,0.0,0.0,0.0,0.0,0.0,0.0,0.0,0.0,0.0,0.0,0.0,0.0,0.0,0.0,0.0,0.0,0.0,0.0,0.0,0.0,0.0,0.0,0.0,0.0,0.0,0.0,0.0,0.0,0.0,0.0,0.0,0.0,0.0,0.0,0.0,0.0,0.0,0.0,0.0,0.0,0.0,0.0,0.0,0.0,0.0,0.0,0.0,0.0,0.0,0.0,0.0,0.0,0.0,0.0,0.0,0.0,0.0,0.0,0.0,0.0,0.0,0.0,0.0,0.0,0.0,0.0,0.0,0.0,0.0,0.0,0.0,0.0,0.0,0.0,0.0,0.0,0.0,0.0,0.0,0.0,0.0,0.0,0.0,0.0,0.0,0.0,0.0,0.0,0.0,0.0,0.0,0.0,0.0,0.0,0.0,0.0,4.1073,4.1777,4.179,4.1115,4.0665,4.0678,4.0015,3.9577,3.9589,3.9589,0.0,0.0,0.0,0.0,0.0,0.0,0.0,0.0,0.0,0.0,0.0,0.0,0.0,0.0,0.0,0.0,0.0,0.0,0.0,0.0,0.0,0.0,0.0,0.0,0.0,0.0,0.0,0.0,0.0,0.0,0.0,0.0,0.0,0.0,0.0,0.0,0.0,0.0,0.0,0.0,0.0,0.0,0.0,0.0,0.0,0.0,0.0,0.0,0.0,0.0,0.0,0.0,0.0,0.0,0.0,0.0,0.0,0.0,0.0,0.0,0.0,0.0,0.0,0.0,0.0,0.0,0.0,0.0,0.0,0.0,0.0,0.0,0.0,0.0,0.0,0.0,0.0,0.0,0.0,0.0,0.0,0.0,0.0,0.0,0.0,0.0,0.0,0.0,0.0,0.0,0.0,0.0,0.0,0.0,0.0,0.0,0.0,0.0,0.0,0.0,0.0,0.0,4.1464,4.1636,0.0,4.1404,4.1189,4.1366,4.1081,4.0761,4.0365,0.0,0.0,0.0,0.0,0.0,0.0,0.0,0.0,0.0,0.0,0.0,0.0,0.0,0.0,0.0,0.0,0.0,0.0,0.0,0.0,0.0,0.0,0.0,0.0,0.0,0.0,0.0,0.0,0.0,0.0,0.0,0.0,0.0,0.0,0.0,0.0,0.0,0.0,0.0,0.0,0.0,0.0,0.0,0.0,0.0,0.0,0.0,0.0,0.0,0.0,0.0,0.0,0.0,0.0,0.0,0.0,0.0,0.0,0.0,0.0,0.0,0.0,0.0,0.0,0.0,0.0,0.0,0.0,0.0,0.0,0.0,0.0,0.0,0.0,0.0,0.0,0.0,0.0,0.0,0.0,0.0,0.0,0.0,0.0,0.0,0.0,0.0,0.0,0.0,0.0,0.0,0.0,0.0,0.0,0.0,0.0,0.0,0.0,0.0,0.0,0.0,0.0,4.2309,4.229,4.2389,0.0,4.2195,4.2017,4.2212,4.195,4.152,4.0841,0.0,0.0,0.0,0.0,0.0,0.0,0.0,0.0,0.0,0.0,0.0,0.0,0.0,0.0,0.0,0.0,0.0,0.0,0.0,0.0,0.0,0.0,0.0,0.0,0.0,0.0,0.0,0.0,0.0,0.0,0.0,0.0,0.0,0.0,0.0,0.0,0.0,0.0,0.0,0.0,0.0,0.0,0.0,0.0,0.0,0.0,0.0,0.0,0.0,0.0,0.0,0.0,0.0,0.0,0.0,0.0,0.0,0.0,0.0,0.0,0.0,0.0,0.0,0.0,0.0,0.0,0.0,0.0,0.0,0.0,0.0,0.0,0.0,0.0,0.0,0.0,0.0,0.0,0.0,0.0,0.0,0.0,0.0,0.0,0.0,0.0,0.0,0.0,0.0,0.0,0.0,0.0,0.0,0.0,0.0,0.0,0.0,0.0,0.0,0.0,0.0,0.0,4.3021,4.3844,4.4482,4.4482,4.3782,4.3294,4.3294,4.253,4.1667,0.0,0.0,0.0,0.0,0.0,0.0,0.0,0.0,0.0,0.0,0.0,0.0,0.0,0.0,0.0,0.0,0.0,0.0,0.0,0.0,0.0,0.0,0.0,0.0,0.0,0.0,0.0,0.0,0.0,0.0,0.0,0.0,0.0,0.0,0.0,0.0,0.0,0.0,0.0,0.0,0.0,0.0,0.0,0.0,0.0,0.0,0.0,0.0,0.0,0.0,0.0,0.0,0.0,0.0,0.0,0.0,0.0,0.0,0.0,0.0,0.0,0.0,0.0,0.0,0.0,0.0,0.0,0.0,0.0,0.0,0.0,0.0,0.0,0.0,0.0,0.0,0.0,0.0,0.0,0.0,0.0,0.0,0.0,0.0,0.0,0.0,0.0,0.0,0.0,0.0,0.0,0.0,0.0,0.0,0.0,0.0,0.0,0.0,0.0,0.0,0.0,0.0,0.0,4.406,4.4304,4.4482,4.4482,4.4294,4.4158,4.4158,4.3919,4.3431,4.2618,0.0,0.0,0.0,0.0,0.0,0.0,0.0,0.0,0.0,0.0,0.0,0.0,0.0,0.0,0.0,0.0,0.0,0.0,0.0,0.0,0.0,0.0,0.0,0.0,0.0,0.0,0.0,0.0,0.0,0.0,0.0,0.0,0.0,0.0,0.0,0.0,0.0,0.0,0.0,0.0,0.0,0.0,0.0,0.0,0.0,0.0,0.0,0.0,0.0,0.0,0.0,0.0,0.0,0.0,0.0,0.0,0.0,0.0,0.0,0.0,0.0,0.0,0.0,0.0,0.0,0.0,0.0,0.0,0.0,0.0,0.0,0.0,0.0,0.0,0.0,0.0,0.0,0.0,0.0,0.0,0.0,0.0,0.0,0.0,0.0,0.0,0.0,0.0,0.0,0.0,0.0,0.0,0.0,0.0,0.0,0.0,0.0,0.0,0.0,0.0,0.0,0.0,4.4482,4.4482,4.4482,4.4482,4.4482,4.4482,4.4482,4.4482,4.4144,4.3332,0.0,0.0,0.0,0.0,0.0,0.0,0.0,0.0,0.0,0.0,0.0,0.0,0.0,0.0,0.0,0.0,0.0,0.0,0.0,0.0,0.0,0.0,0.0,0.0,0.0,0.0,0.0,0.0,0.0,0.0,0.0,0.0,0.0,0.0,0.0,0.0,0.0,0.0,0.0,0.0,0.0,0.0,0.0,0.0,0.0,0.0,0.0,0.0,0.0,0.0,0.0,0.0,0.0,0.0,0.0,0.0,0.0,0.0,0.0,0.0,0.0,0.0,0.0,0.0,0.0,0.0,0.0,0.0,0.0,0.0,0.0,0.0,0.0,0.0,0.0,0.0,0.0,0.0,0.0,0.0,0.0,0.0,0.0,0.0,0.0,0.0,0.0,0.0,0.0,0.0,0.0,0.0,0.0,0.0,0.0,0.0,0.0,0.0,0.0,0.0,0.0,0.0,4.4482,4.4482,4.4482,4.4482,4.4482,4.4482,4.4482,4.4482,4.4182,4.3444,0.0,0.0,0.0,0.0,0.0,0.0,0.0,0.0,0.0,0.0,0.0,0.0,0.0,0.0,0.0,0.0,0.0,0.0,0.0,0.0,0.0,0.0,0.0,0.0,0.0,0.0,0.0,0.0,0.0,0.0,0.0,0.0,0.0,0.0,0.0,0.0,0.0,0.0,0.0,0.0,0.0,0.0,0.0,0.0,0.0,0.0,0.0,0.0,0.0,0.0,0.0,0.0,0.0,0.0,0.0,0.0,0.0,0.0,0.0,0.0,5.1503,0.0,0.0,0.0,0.0,0.0,0.0,0.0,0.0,0.0,0.0,0.0,0.0,0.0,0.0,0.0,0.0,0.0,0.0,0.0,0.0,0.0,0.0,0.0,0.0,0.0,0.0,0.0,0.0,0.0,0.0,0.0,0.0,0.0,0.0,0.0,0.0,0.0,0.0,0.0,0.0,0.0,4.4482,4.4482,4.4482,4.4482,4.4482,4.4482,4.4482,4.4482,4.4444,4.4257,4.3632,0.0,0.0,0.0,0.0,0.0,0.0,0.0,0.0,0.0,0.0,0.0,0.0,0.0,0.0,0.0,0.0,0.0,0.0,0.0,0.0,0.0,0.0,0.0,0.0,0.0,0.0,0.0,0.0,0.0,0.0,0.0,0.0,0.0,0.0,0.0,0.0,0.0,0.0,0.0,0.0,0.0,0.0,0.0,0.0,0.0,0.0,0.0,0.0,0.0,0.0,0.0,0.0,0.0,0.0,0.0,0.0,0.0,0.0,0.0,0.0,5.2051,0.0,0.0,0.0,0.0,0.0,0.0,0.0,0.0,0.0,0.0,0.0,0.0,0.0,0.0,0.0,0.0,0.0,0.0,0.0,0.0,0.0,0.0,0.0,0.0,0.0,0.0,0.0,0.0,0.0,0.0,0.0,0.0,0.0,0.0,0.0,0.0,0.0,0.0,0.0,0.0,4.4482,4.4482,4.4482,4.4482,4.4482,4.4482,4.4482,4.4482,4.4482,4.4482,4.412,0.0,0.0,0.0,0.0,0.0,0.0,0.0,0.0,0.0,0.0,0.0,0.0,0.0,0.0,0.0,0.0,0.0,0.0,0.0,0.0,0.0,0.0,0.0,0.0,0.0,0.0,0.0,0.0,0.0,0.0,0.0,0.0,0.0,0.0,0.0,0.0,0.0,0.0,0.0,0.0,0.0,0.0,0.0,0.0,0.0,0.0,0.0,0.0,0.0,0.0,0.0,0.0,0.0,5.8374,5.8638,5.86,5.8487,5.7845,5.6793,5.5794,5.4758,5.3701,0.0,0.0,0.0,0.0,0.0,0.0,0.0,0.0,0.0,0.0,0.0,0.0,0.0,0.0,0.0,0.0,0.0,0.0,0.0,0.0,0.0,0.0,0.0,0.0,0.0,5.1706,5.0796,0.0,0.0,0.0,0.0,0.0,0.0,0.0,0.0,0.0,0.0,0.0,0.0,4.4482,4.4482,4.4482,4.4482,4.4482,4.4482,4.4482,4.4482,4.4482,4.4482,4.4482,4.4482,0.0,0.0,0.0,0.0,0.0,0.0,0.0,0.0,0.0,0.0,0.0,0.0,0.0,0.0,0.0,0.0,0.0,0.0,0.0,0.0,0.0,0.0,0.0,0.0,0.0,0.0,0.0,0.0,0.0,0.0,0.0,0.0,5.2704,5.2832,0.0,0.0,0.0,0.0,0.0,0.0,0.0,0.0,0.0,0.0,0.0,0.0,0.0,5.8692,5.9584,6.037,6.1209,6.2086,6.1438,6.1133,6.1095,6.0423,5.9979,5.9831,5.9674,0.0,5.5134,5.4808,0.0,0.0,0.0,0.0,0.0,0.0,0.0,0.0,0.0,0.0,0.0,0.0,0.0,0.0,0.0,0.0,0.0,0.0,0.0,0.0,0.0,0.0,5.2499,5.2535,5.2535,5.2217,0.0,4.948,4.7895,4.6215,0.0,0.0,0.0,0.0,0.0,0.0,0.0,0.0,4.4482,4.4482,4.4482,4.4482,4.4482,4.4482,4.4482,4.4482,4.4482,4.4482,4.4482,4.4482,4.4482,4.4482,0.0,0.0,0.0,0.0,0.0,0.0,0.0,0.0,0.0,0.0,0.0,0.0,0.0,0.0,0.0,0.0,0.0,0.0,0.0,0.0,0.0,0.0,0.0,0.0,0.0,0.0,0.0,0.0,0.0,5.3773,5.4118,5.2338,5.296,5.3127,0.0,0.0,0.0,0.0,0.0,0.0,0.0,0.0,0.0,5.7987,5.9626,6.0905,6.1784,6.2166,6.2777,6.3618,6.3236,6.3045,6.3045,6.2715,6.228,6.1822,6.1822,6.0981,5.9439,5.7475,5.6456,5.6061,0.0,0.0,0.0,0.0,5.386,5.4086,5.367,5.355,0.0,0.0,0.0,0.0,0.0,0.0,0.0,0.0,0.0,0.0,0.0,0.0,0.0,5.4426,5.4534,5.4341,5.3532,5.2176,5.0444,0.0,4.7629,4.71,4.5645,0.0,0.0,0.0,0.0,4.4482,4.4482,4.4482,4.4482,4.4482,4.4482,4.4482,4.4482,4.4482,4.4482,4.4482,4.4482,4.4482,4.4482,4.4608,4.4649,0.0,0.0,0.0,0.0,0.0,0.0,0.0,0.0,0.0,0.0,0.0,0.0,0.0,0.0,0.0,0.0,0.0,0.0,0.0,0.0,0.0,0.0,0.0,0.0,0.0,0.0,0.0,0.0,5.4752,5.5372,5.2437,5.4495,5.5178,0.0,0.0,0.0,0.0,0.0,0.0,5.781,5.9262,6.0561,6.1631,6.2662,6.3618,6.4496,6.4726,6.5146,6.5757,6.5352,6.5161,6.5123,6.4688,6.4153,6.3541,6.3541,6.3541,6.3274,5.9911,5.8536,5.8408,5.6972,5.6535,5.6683,5.6327,5.65,5.6781,5.6254,5.5921,5.5738,5.5389,0.0,5.3618,5.3427,0.0,0.0,0.0,0.0,5.445,5.6036,5.5807,5.5335,5.6132,5.6158,5.5857,5.5238,5.409,5.2435,0.0,4.9177,4.8453,4.678,0.0,0.0,0.0,0.0,4.5245,4.5245,4.5176,4.512,4.512,4.512,4.512,4.512,4.4932,4.482,4.482,4.4664,4.4592,4.4592,4.4789,4.4896,4.4896,0.0,0.0,0.0,0.0,0.0,0.0,0.0,0.0,0.0,0.0,0.0,0.0,0.0,0.0,0.0,0.0,0.0,0.0,0.0,0.0,0.0,0.0,0.0,0.0,0.0,0.0,0.0,0.0,0.0,5.4167,5.688,0.0,0.0,0.0,0.0,5.8713,5.8866,5.9644,6.1249,6.2204,6.3465,6.5108,6.6713,6.8012,6.8852,6.9655,7.0037,7.0075,6.847,6.7706,6.7668,6.6063,6.5337,6.5261,6.5261,6.5261,6.4993,6.1669,6.0269,6.0026,5.7406,5.693,5.7572,5.7181,5.8048,5.9441,5.9528,5.9046,5.8432,5.8672,5.7634,5.6155,5.539,5.5696,0.0,0.0,5.733,5.8017,5.8355,5.7821,5.7155,5.7202,5.6583,5.6012,5.5935,5.465,5.2898,0.0,4.9705,4.87,4.7772,0.0,4.7619,4.757,4.74,4.7264,4.7264,4.701,4.6861,4.6861,4.6861,4.6861,4.6861,4.611,4.5622,4.5622,4.5091,4.4776,4.4776,4.506,4.5191,4.5191,4.5201,0.0,0.0,0.0,0.0,0.0,0.0,0.0,0.0,0.0,0.0,0.0,0.0,0.0,0.0,0.0,0.0,0.0,0.0,0.0,0.0,0.0,0.0,0.0,0.0,0.0,0.0,0.0,0.0,5.789,6.0662,0.0,6.0365,6.0481,6.102,6.1867,6.3433,6.4626,6.523,6.7116,6.818,6.8244,6.9308,7.0038,7.0346,7.0115,7.0,7.0,6.8859,6.8282,6.8244,6.709,6.6538,6.6538,6.6,6.5769,6.5654,6.3897,6.3092,6.2809,6.1297,6.0622,6.0571,6.0832,6.0604,6.0275,6.0964,6.0277,5.909,5.8814,5.8322,5.7793,5.7523,5.7639,5.7996,5.8645,5.8665,5.8481,5.8595,5.7946,5.7164,5.6583,5.6235,5.6012,5.6012,5.5122,5.4138,5.343,5.1661,4.9912,4.8904,4.873,4.8488,4.7816,4.764,4.7583,4.7583,4.75,4.744,4.744,4.744,4.744,4.744,4.6668,4.6212,4.6212,4.5495,4.5082,4.5082,4.5255,4.5409,4.5409,4.5535,4.5896,0.0,0.0,0.0,0.0,0.0,0.0,0.0,0.0,0.0,0.0,0.0,0.0,0.0,0.0,0.0,0.0,0.0,0.0,0.0,0.0,0.0,0.0,0.0,0.0,0.0,0.0,6.265,6.1551,6.437,6.5865,6.4496,6.5153,6.5876,6.6416,6.8579,6.9726,6.9444,7.1323,7.1979,7.1118,7.189,7.2147,7.1877,7.1349,7.0925,7.0616,6.9779,6.9239,6.893,6.834,6.7915,6.7606,6.7066,6.6835,6.6796,6.5909,6.5489,6.5303,6.3783,6.3281,6.3338,6.3092,6.2477,6.1799,6.1925,6.1289,6.031,5.965,5.9455,5.9455,5.9455,5.9455,5.9493,5.9803,5.9493,5.8952,5.869,5.7946,5.7164,5.6583,5.6197,5.6012,5.6012,5.5354,5.4813,5.4813,5.3149,5.157,5.0842,5.0477,5.0046,4.9346,4.891,4.8667,4.8667,4.8592,4.8536,4.8536,4.8536,4.8536,4.8536,4.7821,4.721,4.6931,4.6164,4.5619,4.5313,4.5778,4.6026,4.6026,4.6174,4.6542,4.7115,0.0,0.0,0.0,0.0,0.0,0.0,0.0,0.0,0.0,0.0,0.0,0.0,0.0,0.0,0.0,0.0,0.0,0.0,0.0,0.0,0.0,0.0,0.0,5.8428,6.2127,6.4893,6.502,6.7922,6.961,6.8861,7.1023,7.244,7.2377,7.3985,7.4564,7.3664,7.4462,7.45,7.3651,7.4423,7.4462,7.3613,7.3613,7.3188,7.2365,7.1567,7.0756,6.9934,6.9868,6.9417,6.8594,6.8517,6.8517,6.844,6.7579,6.7332,6.7261,6.453,6.4479,6.5688,6.3783,6.3537,6.4011,6.2413,6.2084,6.224,6.1389,6.1118,6.1118,6.1118,6.1118,6.0925,6.0151,5.9919,5.9725,5.8836,5.7985,5.7318,5.728,5.6622,5.6012,5.6012,5.5393,5.4851,5.4851,5.4194,5.3575,5.3498,5.2801,5.2229,5.2229,5.1343,0.0,5.0673,5.0451,5.0268,5.0268,5.023,5.0218,5.0218,4.9476,4.8608,4.7794,4.7108,4.6411,4.5594,4.6538,4.7115,4.7154,4.7154,4.7154,4.7154,0.0,0.0,0.0,0.0,0.0,0.0,0.0,0.0,0.0,0.0,0.0,0.0,0.0,0.0,0.0,0.0,0.0,0.0,0.0,0.0,0.0,6.1745,6.3985,6.309,6.5818,6.836,6.9562,7.1657,7.289,7.2666,7.3869,7.4364,7.3743,7.5256,7.5566,7.4121,7.4868,7.4945,7.4044,7.4276,7.4276,7.4044,7.4044,7.3889,7.3656,7.3462,7.3239,7.2967,7.1687,7.0989,7.0678,6.9467,6.8924,6.8885,6.7993,6.767,6.7562,6.5972,6.5708,6.6109,6.4904,6.3808,6.2755,6.1706,6.137,6.1427,6.1195,6.1118,6.1118,6.1118,6.1118,6.1041,6.0847,6.077,6.0422,5.899,5.841,5.7907,5.667,5.6158,5.6012,5.6012,5.5818,5.5857,5.6467,5.6437,5.5664,5.3807,5.3304,5.3149,5.3149,5.2884,0.0,5.2696,5.2073,5.1652,5.1652,5.1064,5.0717,5.0717,4.9406,4.845,4.8219,4.687,4.6244,4.663,4.6938,4.7386,4.8043,4.8662,4.8662,0.0,0.0,0.0,0.0,0.0,0.0,0.0,0.0,0.0,0.0,0.0,0.0,0.0,0.0,0.0,0.0,0.0,0.0,0.0,0.0,0.0,0.0,6.5605,6.8006,6.9129,7.0412,7.1714,7.3074,7.4123,7.4861,7.5211,7.6026,7.6182,7.5327,7.6842,7.7036,7.5327,7.6415,7.6531,7.5288,7.6298,7.6376,7.5249,7.5599,7.5444,7.4744,7.4744,7.455,7.4162,7.354,7.3035,0.0,7.1287,7.0704,7.0588,6.9344,6.8645,0.0,0.0,0.0,0.0,0.0,6.3362,6.1776,6.1273,6.1118,6.1118,6.1118,6.1118,6.1118,6.1118,6.1118,6.1041,6.0692,6.0344,5.9841,5.8836,5.8062,5.7366,5.6708,5.6274,5.6012,5.6012,5.6274,5.6699,5.7202,5.7598,0.0,5.5896,5.5316,5.5084,5.5084,5.4503,5.4039,5.4039,5.3265,5.2616,5.2229,5.2066,5.1834,5.1486,5.0558,0.0,0.0,0.0,4.7657,4.8159,4.8198,0.0,0.0,0.0,4.9436,4.8933,0.0,0.0,0.0,4.9165,4.9938,0.0,0.0,0.0,0.0,0.0,0.0,0.0,0.0,0.0,0.0,0.0,0.0,0.0,0.0,0.0,0.0,6.9087,7.117,7.5094,7.5055,7.4861,7.556,7.5638,7.591,7.6648,7.758,7.7736,7.6764,7.8318,7.8552,7.6803,0.0,0.0,0.0,0.0,7.9134,7.6726,7.758,7.7192,7.5638,7.5638,7.5211,7.4511,7.5172,7.5016,7.4162,7.3268,7.2841,7.2647,7.0976,6.9764,6.8777,6.7071,6.6338,6.6048,6.4445,6.2743,6.1234,6.1234,0.0,0.0,6.1195,6.1195,6.1118,6.1234,6.1195,6.0963,6.0228,5.9493,5.8874,5.8767,5.7521,5.6476,5.7125,5.6622,5.6012,5.6012,5.6622,5.7202,5.7396,5.8062,5.8651,5.8836,5.8062,5.7434,5.7434,5.6167,5.5238,5.5238,5.4465,5.3614,5.284,0.0,0.0,5.2577,5.2422,5.1912,5.0975,5.0132,4.9707,4.9707,4.9784,5.0163,5.0898,5.021,4.9861,4.9861,4.9838,4.9845,4.9845,4.9845,5.0311,0.0,0.0,0.0,0.0,0.0,0.0,0.0,0.0,0.0,0.0,0.0,0.0,0.0,0.0,0.0,7.0191,7.2763,7.4783,7.6259,7.692,7.7075,7.6531,7.6454,7.6531,7.6687,7.8124,7.8396,7.6842,7.8318,7.8552,7.6803,7.7036,7.7036,7.6726,7.7891,7.793,7.6726,7.758,7.7464,7.6454,0.0,0.0,7.6221,7.5716,7.5016,7.4162,7.3268,7.2491,7.1753,7.0743,6.9342,6.7799,6.6773,6.5943,6.5209,6.488,6.3632,6.2162,6.2162,6.1698,6.1234,6.193,6.166,6.1234,6.193,6.166,0.0,6.0925,6.077,6.046,5.9803,5.8874,5.7946,5.7434,5.6622,5.6012,5.6012,5.6119,5.667,5.8062,5.8488,5.9029,6.0383,5.9377,5.8333,5.8333,5.8062,5.7869,5.7869,5.7095,5.6506,5.6313,5.5857,5.52,5.4387,5.3652,5.2569,5.1014,5.0132,4.9707,4.9707,5.0318,5.0743,5.0898,5.0743,5.0666,5.0666,5.0797,5.081,5.081,5.081,5.0945,0.0,0.0,0.0,0.0,0.0,0.0,0.0,0.0,0.0,0.0,0.0,6.2478,6.6384,0.0,6.9328,7.4045,7.5521,7.6531,7.7813,7.8008,7.7697,7.6803,7.6687,7.6687,7.6687,7.7503,7.7813,7.7386,7.7736,7.7813,7.7386,7.7347,7.7153,7.6726,7.7969,7.8008,7.6726,7.758,7.758,7.6687,7.6687,7.6493,7.6104,7.5677,7.5016,7.4162,7.3268,7.2647,7.2103,7.0369,6.9106,6.8123,6.6853,6.5799,6.4986,6.4986,6.3903,6.2472,6.2897,6.2201,6.1234,6.2124,6.1814,6.1195,6.1621,6.1466,6.1118,6.1118,6.0809,6.0499,6.0499,5.9223,5.7946,5.7946,5.694,5.6012,5.6012,5.6351,5.6893,5.7791,5.8294,5.8874,5.9687,5.9145,5.8874,5.9725,5.9493,5.9261,5.9261,5.8101,5.728,5.728,5.6893,5.6467,5.6089,5.489,5.3575,5.2298,5.1022,5.0279,5.0279,5.0705,5.0898,5.0898,5.0981,5.1016,5.1016,5.1114,5.1133,5.1133,5.1183,5.1203,0.0,0.0,0.0,0.0,0.0,0.0,0.0,6.0132,6.0971,6.4765,6.4613,6.5499,7.109,7.1154,7.1986,7.6959,7.7308,7.7386,7.8629,7.8474,7.7852,7.6842,7.6687,7.6687,7.6687,7.6842,7.7192,7.7697,7.727,7.727,7.7969,7.7852,7.7503,7.6959,7.8318,7.828,7.6726,7.758,7.758,7.6687,7.6531,7.6143,7.5482,7.5327,7.4744,7.3873,7.301,7.2543,7.2185,6.9938,6.8867,6.8481,6.6913,6.5838,6.5218,6.5064,6.398,6.2743,6.3245,6.2433,6.1234,6.2124,6.1814,6.1118,6.1311,6.1234,6.1118,6.1118,6.077,6.0538,6.1195,5.9841,5.8449,5.8952,5.7907,5.667,5.6321,5.6815,5.728,5.728,5.7869,5.841,5.8574,5.8613,5.9068,6.0422,6.0074,5.9725,5.988,5.8681,5.786,5.8014,5.7898,5.7744,5.7559,5.6012,5.4735,5.4039,5.2376,5.1323,5.1169,5.1006,5.0944,5.0944,5.1056,5.1197,5.1353,5.146,5.1576,5.1736,5.1796,5.1655,5.3498,5.52,5.8014,6.0963,6.189,6.364,0.0,6.9875,6.9433,7.1404,7.2302,7.2988,7.3765,7.4395,7.5249,7.6609,7.7425,7.7658,7.7075,7.8241,7.8552,7.692,7.6687,7.6687,7.6687,7.7386,7.758,7.692,7.7464,7.7891,7.8008,7.727,7.7153,7.7813,7.8046,7.7697,7.6726,7.758,7.758,7.6687,7.5988,7.5599,7.5482,7.4706,7.3825,7.2897,7.2036,7.1242,7.0427,6.9334,6.8452,6.7658,6.6602,6.6157,6.5992,6.5257,6.4377,6.3449,6.2781,6.193,6.1234,6.2124,6.1814,6.1234,6.2008,6.1698,6.1118,6.1118,6.1582,6.2162,6.224,6.2046,6.166,6.0963,6.0112,5.9029,5.7473,5.7241,5.728,5.728,5.7396,5.7675,5.8449,5.8613,5.8651,5.8836,5.8797,5.9029,5.9803,5.9725,5.988,6.0615,6.0035,5.93,5.8526,5.6863,5.5818,5.5741,5.4155,5.284,5.2105,5.1424,5.1062,5.1062,5.1138,5.1581,5.2325,5.2398,5.2852,5.3596,5.3666,5.2846,5.7637,5.872,6.0112,6.2549,6.5045,6.7629,7.0607,7.0767,7.123,7.4521,7.4717,7.4933,7.6916,7.6744,7.6771,7.809,7.8189,7.8176,7.8293,7.8981,7.8759,7.7038,7.7707,7.8085,7.752,7.7347,7.7736,7.8901,7.7891,7.793,7.9445,7.7736,7.7114,7.7969,7.7514,7.7078,7.6681,7.7002,7.6992,7.6643,7.5789,7.5129,7.4586,7.3771,7.2908,7.1988,7.1116,7.0506,7.006,6.8714,6.791,6.7454,6.6544,6.6185,6.6147,6.5837,6.4831,6.3719,6.3864,6.2665,6.1234,6.2124,6.1814,6.1157,6.1543,6.1389,6.1195,6.1698,6.2124,6.2394,6.2394,6.2008,6.1427,6.0615,5.9764,5.8952,5.8217,5.8062,5.8062,5.8062,5.8062,5.8178,5.8526,5.8178,5.802,5.8599,5.8604,5.8729,5.9106,5.8681,5.8526,5.8836,5.9493,5.9764,5.9377,5.7846,5.6854,5.6854,5.4848,5.3263,5.2403,5.2567,5.2436,5.1926,5.2483,5.2947,5.3298,5.3382,5.3588,5.3979,5.3984,5.3593,5.9685,6.1003,6.2369,6.4355,6.77,7.0663,7.1244,7.1809,7.3114,7.656,7.6272,7.6279,7.9008,7.8256,7.7656,7.8936,7.8417,7.8091,7.8715,7.8772,7.8316,7.7063,7.7848,7.835,7.81,7.7687,7.8207,8.0081,7.8465,7.8195,8.0097,7.8389,7.7535,7.7971,7.7351,7.6905,7.6672,7.6632,7.6612,7.6573,7.572,7.4829,7.3976,7.2919,7.2056,7.1436,7.0525,7.0002,6.9613,6.8181,6.7376,6.7075,6.6456,6.6069,6.5876,6.5876,6.4948,6.3719,6.3864,6.2665,6.1195,6.1853,6.1621,6.1118,6.1118,6.1118,6.1234,6.1853,6.2201,6.2404,6.246,6.2159,6.1634,6.0871,6.0189,5.9607,5.915,5.9033,5.8956,5.8723,5.8684,5.8684,5.8684,5.818,5.7984,5.8635,5.8718,5.8669,5.8612,5.8101,5.7605,5.7381,5.8514,5.9367,5.9607,5.8538,5.798,5.8213,5.612,5.4562,5.3939,5.3845,5.3621,5.327,5.3676,5.4047,5.4281,5.4334,5.4492,5.4726,5.4726,5.4726,5.791,6.0755,6.4535,6.7146,6.9777,7.217,7.3807,7.5542,7.7047,7.7972,7.8132,7.837,7.9346,7.876,7.8168,7.8222,7.7554,7.7043,7.7082,7.7038,7.6999,7.7004,7.6297,7.6448,0.0,7.88,7.9243,7.9318,7.9164,7.9055,7.9143,7.9055,7.8667,7.7941,7.7891,7.7465,7.6612,7.6612,7.6612,7.6573,7.572,7.4829,7.3937,7.222,7.1415,7.1337,7.0395,6.9561,6.8777,6.7887,6.6998,6.6224,6.6224,6.5721,6.5025,6.5025,6.4493,6.3449,6.1814,6.1157,6.1118,6.1118,6.1118,6.1118,6.1118,6.1118,6.1118,6.1118,6.1737,6.2432,6.2572,6.3153,6.3539,6.2774,6.2606,6.2138,6.0511,6.0165,5.9893,5.904,5.8884,5.8884,5.8884,5.8884,5.8849,5.8888,5.8888,5.8846,5.872,5.8686,5.8383,5.7688,5.7658,5.8009,5.887,5.8875,5.923,6.0053,5.846,5.7485,5.7451,5.5176,5.4266,5.5086,5.4371,5.4414,5.5273,5.5273,5.5703,5.6523,5.6523,5.6523,5.9434,6.2435,6.548,6.8047,7.1048,7.3724,7.4956,7.6581,7.813,7.9018,7.7381,7.6093,7.6953,7.5936,7.5152,7.5738,7.6553,7.7332,7.7918,7.8429,7.7924,7.5658,7.765,7.855,0.0,0.0,0.0,8.0124,7.9181,7.9267,8.0981,7.9408,7.8565,7.8837,7.7622,7.6855,7.6687,7.6514,7.6503,7.6594,7.5098,7.359,7.2207,7.1605,7.1324,7.1285,7.0374,6.986,6.9473,6.8081,6.7346,6.6998,6.6417,6.6031,6.5664,6.4584,6.4006,6.361,6.2403,6.1582,6.1118,6.1118,6.1118,6.1118,6.1118,6.1118,6.1234,6.1814,6.2254,6.2556,6.2609,6.2847,6.2875,6.2021,6.1836,6.1685,6.1101,6.0984,6.091,6.0638,6.056,6.056,6.056,6.0136,5.9551,5.8971,5.8425,5.8022,5.7985,5.7468,5.7011,5.6771,5.7238,5.7706,5.8018,5.862,5.8841,5.8568,5.8603,5.8149,5.6977,5.6673,5.6403,5.6129,5.5859,5.5859,5.6172,5.6172,5.6328,5.6601,5.6601,5.6601,6.1699,6.4551,6.7325,6.9582,7.2271,7.4506,7.5169,7.6665,7.808,7.8671,7.6557,7.4758,7.5343,7.4018,7.2927,7.3162,7.4414,7.5742,7.6953,7.7265,7.7069,7.6092,7.7616,7.8201,0.0,0.0,0.0,8.0119,7.9812,7.9866,8.0641,7.9598,7.8939,7.88,7.7642,7.7031,7.7118,7.6691,7.6555,7.6661,7.4874,7.3422,7.2296,7.1714,7.1443,7.1404,7.052,7.0132,7.0054,6.8657,6.7873,6.7562,6.698,6.6398,6.5754,6.4726,6.4137,6.369,6.2446,6.1643,6.1169,6.1098,6.1118,6.1089,6.1161,6.1186,6.1272,6.1873,6.208,6.2244,6.2602,6.2742,6.2637,6.208,6.1969,6.1891,6.1579,6.1501,6.1501,6.1501,6.1501,6.1501,6.1501,6.1074,6.057,5.9987,5.9165,5.8376,5.7726,5.7134,5.6716,5.6425,5.6893,5.7361,5.7674,5.8252,5.85,5.8266,5.8552,5.8359,5.7578,5.7461,5.7305,5.707,5.6758,5.6601,5.6601,5.6601,5.6601,5.6601,5.6601,5.6601,6.4336,6.6836,6.9805,7.1523,7.3242,7.4531,7.4609,7.5898,7.7109,7.7068,7.5622,7.4294,7.4216,7.2927,7.1599,7.082,7.1562,7.2851,7.457,7.4101,7.4765,7.8047,7.6289,7.5781,7.8242,7.6992,0.0,7.9313,0.0,8.0719,7.8381,7.97,7.9753,7.7965,7.7909,7.7909,7.784,7.7024,7.6669,7.6727,7.5012,7.4194,7.4077,7.244,7.17,7.1661,7.0848,7.0463,7.0385,6.9528,6.8666,6.7847,6.7808,6.6795,6.5353,6.5319,6.4778,6.3833,6.2043,6.1401,6.1335,6.1208,6.1146,6.1143,6.1274,6.1317,6.1305,6.1383,6.1417,6.1638,6.2608,6.2857,6.2869,6.2929,6.293,6.2695,6.1875,6.1719,6.1719,6.1719,6.1719,6.1719,6.1719,6.1719,6.1719,6.1719,6.1015,5.9803,5.8022,5.7742,5.7443,5.6679,5.6601,5.6914,5.7773,5.7851,5.8242,5.9023,5.8359,5.832,5.9101,5.7539,5.707,5.789,5.7109,5.664,5.6601,5.668,5.668,5.6601,5.668,5.668,6.4726,6.7305,6.9648,7.0742,7.2344,7.3789,7.4453,7.5469,7.6055,7.539,7.289,7.039,6.9101,6.9531,7.0195,7.0625,7.3594,7.625,7.7344,7.7305,7.7265,7.75,7.7539,7.7773,7.8437,7.8086,0.0,0.0,7.9484,7.9635,8.0222,7.9993,7.937,7.8213,7.8096,7.7779,7.7233,7.6999,7.6547,7.5836,7.47,7.3882,7.3264,7.2206,7.17,7.17,7.1466,7.1354,7.1315,7.0419,6.9562,6.8699,6.8042,6.718,6.6215,6.5581,6.5211,6.4899,6.3829,6.2964,6.2346,6.2318,6.1834,6.1334,6.1362,6.1373,6.1378,6.1403,6.1463,6.1627,6.1874,6.1977,6.199,6.2031,6.2031,6.1953,6.1758,6.1719,6.1719,6.1719,6.1719,6.1719,6.1719,6.1719,6.1719,6.1719,6.1523,6.0742,5.9022,5.824,5.7538,5.668,5.6601,5.668,5.6914,5.7539,5.7734,5.7305,5.8281,5.8672,5.8242,5.7812,5.7656,5.789,5.7695,5.7265,5.6601,5.789,5.7851,5.664,5.793,5.7851,6.625,6.832,7.0273,7.1523,7.2578,7.332,7.3437,7.3828,7.3711,7.2109,6.9648,6.7383,6.6015,6.7148,6.8359,6.8437,7.2422,7.5937,7.7187,7.7695,7.8008,7.8281,7.8711,7.9023,7.9023,7.9023,7.9531,0.0,8.0078,7.9844,8.039,8.0307,7.9782,7.8858,7.8429,7.7801,7.7023,7.7046,7.6809,7.6233,7.4981,7.4122,7.3657,7.2405,7.1819,7.1819,0.0,7.1819,7.1741,7.0886,7.0027,6.9165,6.8307,6.7487,6.667,6.6231,6.6042,6.6003,6.5535,6.4509,6.3305,6.2847,6.2352,6.1928,6.158,6.1471,6.1478,6.1507,6.1575,6.1747,6.2138,6.2223,6.2265,6.2265,6.2265,6.2265,6.2265,6.2265,6.2265,6.2265,6.2265,6.2148,6.1758,6.2031,6.2148,6.1758,6.1719,6.1211,5.9883,5.9297,5.8515,5.7305,5.7187,5.7031,5.664,5.7031,5.7109,5.664,5.7539,5.7851,5.7344,5.7344,5.7344,5.7344,5.7344,5.7109,5.6601,5.7578,5.7578,5.6601,5.7617,5.7539,6.8242,6.9531,7.0937,7.2539,7.2851,7.2617,7.1836,7.1562,7.0781,6.8359,6.6562,6.5117,6.414,6.5469,6.6601,6.6172,7.0156,7.3984,7.5976,7.6914,7.7969,7.9492,7.9687,7.9765,7.9844,7.9765,8.0429,8.2187,8.1484,8.0664,7.9922,8.0586,8.0543,7.9572,7.8635,7.7776,7.7034,7.7145,7.7148,7.6992,7.539,7.4531,7.4375,7.2734,7.1992,7.1992,0.0,0.0,7.1758,7.1015,7.0117,6.918,6.8476,6.7656,6.6914,6.6914,6.6836,6.6719,6.6719,6.5664,6.4139,6.3215,6.2742,6.2442,6.1796,6.1614,6.1621,6.1679,6.1719,6.1875,6.2617,6.2812,6.2812,6.2812,6.2812,6.2851,6.2969,6.3008,6.3008,6.3008,6.3008,6.2773,6.1992,6.2617,6.293,6.2148,6.2031,6.1719,6.0859,6.0547,5.9805,5.8242,5.7969,5.7578,5.6836,5.668,5.6601,5.6601,5.6601,5.6601,5.6601,5.6601,5.6601,5.6601,5.6719,5.6719,5.6601,5.6836,5.6836,5.6601,5.6836,5.6836,6.9648,7.0,6.9922,7.0898,7.0664,7.0117,6.9883,6.9336,6.832,6.6445,6.5234,6.4023,6.2422,6.414,6.6484,6.8437,7.1328,7.4414,7.7617,7.8164,7.8633,7.9609,7.9687,7.9961,8.0703,8.0117,0.0,0.0,0.0,8.0937,8.0781,8.0937,8.0586,7.9686,7.8201,7.7303,7.7186,7.7187,7.6836,7.6094,7.5078,7.4219,7.3476,7.2461,7.1992,7.1992,7.1992,0.0,7.0898,7.0742,6.9805,6.8398,6.8242,6.7656,6.6914,6.6914,6.6445,6.582,6.582,6.5156,6.4258,6.4099,6.3042,6.1832,6.1717,6.1679,6.1679,6.1719,6.1719,6.1719,6.1875,6.1914,6.1914,6.1914,6.1914,6.2109,6.2851,6.3008,6.3008,6.3008,6.3008,6.2969,6.2812,6.3515,6.4023,6.3867,6.3867,6.3515,6.2656,6.1289,6.0039,5.9062,5.832,5.7851,5.7695,5.6992,5.6601,5.6601,5.6601,5.6601,5.6601,5.6601,5.6601,5.6601,5.7305,5.7305,5.6601,5.8047,5.8008,5.664,5.8086,5.7969,6.957,7.0078,7.0312,7.1172,7.039,6.9219,6.832,6.7109,6.5664,6.3945,6.3242,6.2695,6.1836,6.3828,6.6015,6.7226,7.0351,7.3672,7.6719,7.7539,7.8281,7.9531,8.0117,8.0351,8.0312,8.0781,8.1406,8.2226,0.0,8.1679,8.1679,8.082,7.9726,7.8437,7.7617,7.6992,7.6523,7.6523,7.6328,7.5898,7.457,7.3711,7.3281,7.2383,7.1992,7.1992,7.1992,0.0,7.1328,7.039,6.9531,6.875,6.7851,6.7265,6.6914,6.6914,6.664,6.6211,6.5742,6.5039,6.4219,6.3789,6.3047,6.2305,6.1836,6.1719,6.1719,6.1719,6.1719,6.1719,6.1719,6.1719,6.1719,6.1719,6.2031,6.25,6.289,6.3008,6.3008,6.3008,6.3008,6.2851,6.2383,6.3437,6.414,6.3672,6.4023,6.3984,6.3125,6.2265,6.125,5.9961,5.9453,5.9023,5.8594,5.8203,5.7969,5.7969,5.7969,5.7734,5.7305,5.7265,5.707,5.6601,5.6992,5.7031,5.6601,5.7422,5.7422,5.6601,5.7461,5.7383,6.9453,7.0195,7.082,7.1328,7.0156,6.8437,6.6719,6.5156,6.3594,6.2031,6.1719,6.1719,6.1719,6.3398,6.4961,6.5508,6.8594,7.1992,7.5195,7.6367,7.7617,7.9492,8.0469,8.0742,8.0039,8.1406,0.0,8.2031,0.0,0.0,8.1992,8.039,7.8828,7.7539,7.7305,7.6875,7.6172,7.6172,7.5976,7.5586,7.4219,7.3398,7.3008,7.2305,7.1992,7.1992,7.1797,0.0,0.0,7.0039,6.9297,6.9023,6.7695,6.707,6.6914,6.6914,6.6797,6.6523,6.5859,6.4922,6.3906,6.3203,6.2851,6.2578,6.1914,6.1719,6.1719,6.1719,6.1719,6.1719,6.1719,6.1719,6.1719,6.1719,6.2383,6.3008,6.3008,6.3008,6.3008,6.3008,6.3008,6.2773,6.2109,6.3281,6.4062,6.3398,6.3867,6.3984,6.3125,6.3008,6.2383,6.0859,6.0508,6.0156,5.9492,5.9297,5.9219,5.9219,5.9219,5.8906,5.8203,5.8008,5.7578,5.6875,5.6719,5.6601,5.6601,5.6601,5.6601,5.6601,5.6601,5.6601,7.0351,7.0625,7.0547,6.9805,6.8359,6.668,6.4922,6.3789,6.2851,6.1914,6.1719,6.1719,6.1719,6.1914,6.2851,6.5195,6.6601,6.9101,7.4023,7.5469,7.6953,7.9414,8.0469,8.0976,8.0898,8.1758,8.1953,8.1172,0.0,0.0,8.1094,7.9531,7.8555,7.8398,7.7617,7.7148,7.707,7.707,7.6289,7.4726,7.457,7.3633,7.2109,7.2031,7.1992,7.1953,7.1172,0.0,0.0,6.9805,6.8984,6.8281,6.8125,6.7617,6.6914,6.6914,6.6406,6.5703,6.5625,6.4492,6.3125,6.3047,6.2461,6.1797,6.1719,6.1719,6.1719,6.1719,6.1719,6.1719,6.1719,6.1719,6.1719,6.1719,6.2383,6.3008,6.3008,6.3008,6.3008,6.3008,6.3008,6.2969,6.289,6.3672,6.4258,6.418,6.4258,6.3984,6.3125,6.3008,6.2656,6.168,6.0859,6.0351,6.0312,5.9609,5.9219,5.9219,5.9219,5.914,5.9062,5.832,5.7851,5.7773,5.6992,5.6601,5.6601,5.6601,5.6601,5.6601,5.6601,5.6601,6.9687,7.0664,7.1172,6.9805,6.8164,6.6328,6.4023,6.2851,6.1953,6.1094,6.1328,6.1719,6.1719,6.1719,6.2031,6.3086,6.3984,6.582,6.9453,7.0273,7.2226,7.6875,7.7265,7.7969,8.0039,0.0,8.0586,8.0234,0.0,0.0,7.9492,7.8867,7.7773,7.6211,7.6328,7.5898,7.4844,7.4844,7.4492,7.3828,7.3281,7.2656,7.1992,7.1992,7.1719,7.1211,7.0859,0.0,0.0,6.9805,6.9258,6.8867,6.8398,6.7656,6.6914,6.6914,6.668,6.6328,6.5781,6.5156,6.4492,6.3945,6.3203,6.2383,6.1875,6.1719,6.1719,6.1719,6.1719,6.1719,6.1719,6.1719,6.1719,6.1719,6.1953,6.2226,6.2226,6.2226,6.2226,6.2226,6.2226,6.2226,6.2226,6.293,6.3515,6.3515,6.3945,6.3984,6.3125,6.3008,6.2656,6.1797,6.1406,6.1172,6.1172,6.0898,6.0703,6.0703,6.0703,6.0469,5.9922,5.9609,5.918,5.8672,5.8359,5.8164,5.8164,5.8164,5.8164,5.8164,5.8164,5.8164,6.8437,6.9922,7.0898,6.9453,6.7812,6.5976,6.3867,6.25,6.1523,6.0898,6.1289,6.1719,6.1719,6.1719,6.1719,6.1719,6.2422,6.3828,6.6172,6.6758,6.875,7.3789,7.3828,7.4805,7.8242,7.8828,7.8867,0.0,0.0,0.0,7.7344,7.7344,7.6601,7.5039,7.5312,7.4922,7.3711,7.3672,7.3555,7.3281,7.2422,7.1992,7.1992,7.1484,7.1055,7.0664,0.0,0.0,0.0,6.9453,6.9101,6.8984,6.8437,6.7656,6.6914,6.6914,6.6914,6.6797,6.6211,6.582,6.5508,6.4883,6.4101,6.3203,6.2344,6.1914,6.1719,6.1719,6.1719,6.1719,6.1719,6.1719,6.1719,6.1719,6.1719,6.1719,6.1719,6.1914,6.1992,6.1758,6.1914,6.1992,6.1758,6.2226,6.2617,6.2617,6.3125,6.332,6.2695,6.2617,6.2383,6.1758,6.1719,6.1719,6.1719,6.1719,6.1719,6.1719,6.1719,6.1406,6.082,6.0547,6.0117,5.957,5.9336,5.9219,5.9219,5.9219,5.9219,5.9219,5.9219,5.9219,6.668,6.8164,6.9219,6.8437,6.6914,6.539,6.4492,6.293,6.1719,6.168,6.168,6.1719,6.1719,6.1719,6.1719,6.1719,6.2422,6.3594,6.5351,6.6367,6.7851,7.0469,7.0742,7.2109,7.5586,7.6719,7.6875,0.0,0.0,0.0,7.4648,7.4648,7.5039,7.5859,7.5078,7.4609,7.4609,7.4609,7.414,7.3281,7.2422,7.1992,7.1953,7.0273,6.9961,0.0,0.0,0.0,0.0,6.8555,6.8203,6.8203,6.8203,6.7656,6.6914,6.6914,6.6914,6.6914,6.6875,6.6328,6.5586,6.5586,6.5,6.4101,6.3242,6.2383,6.1719,6.1719,6.1719,6.1719,6.1719,6.1719,6.1719,6.1719,6.1719,6.1719,6.1719,6.2383,6.2734,6.1875,6.2383,6.2695,6.1836,6.1719,6.1719,6.1719,6.1719,6.1719,6.1719,6.1719,6.1719,6.1719,6.1719,6.1719,6.1719,6.1719,6.1719,6.1719,6.1719,6.1719,6.168,6.0859,6.039,6.039,5.9609,5.9219,5.9219,5.9219,5.9219,5.9219,5.9219,5.9219,6.5469,6.6836,6.75,6.664,6.5547,6.4336,6.2851,6.2109,6.1523,6.0937,6.1289,6.1719,6.1719,6.1719,6.1719,6.1719,6.1914,6.2305,6.2851,6.4219,6.6328,6.9492,7.2461,7.4453,0.0,0.0,0.0,0.0,0.0,0.0,7.4609,7.4023,7.3828,7.4101,7.3867,7.3437,7.2812,7.2812,7.2695,7.2383,7.1523,7.1094,7.1055,6.9961,0.0,0.0,0.0,0.0,0.0,6.832,6.8203,6.8203,6.8203,6.7656,6.6914,6.6914,6.6914,6.6914,6.6914,6.6719,6.6484,6.6484,6.5898,6.5039,6.414,6.3281,6.2461,6.1875,6.1719,6.1719,6.1719,6.1719,6.1719,6.1719,6.2148,6.2578,6.2578,6.2812,6.293,6.2656,6.2812,6.2734,6.1836,6.2187,6.2383,6.1797,6.1719,6.1719,6.1719,6.1719,6.1719,6.1719,6.1719,6.1719,6.1719,6.2265,6.2344,6.1758,6.2265,6.2305,6.1719,6.1445,6.1289,6.1289,6.1055,6.0898,6.0898,6.0898,6.0898,6.0898,6.0898,6.0898,6.3241,6.5,6.5703,6.4844,6.4219,6.3437,6.2031,6.1719,6.1445,6.0586,6.082,6.1211,6.1211,6.1211,6.1328,6.164,6.1719,6.1797,6.2148,6.3398,6.5469,6.8633,7.1914,0.0,0.0,0.0,0.0,0.0,0.0,0.0,7.3633,7.3086,7.2812,7.2812,7.25,7.207,7.1523,7.1523,7.1367,7.1055,7.0469,7.0195,7.0156,6.8984,0.0,0.0,0.0,0.0,0.0,6.7695,6.7695,6.7695,6.7695,6.7383,6.6914,6.6914,6.6914,6.6914,6.6914,6.6914,6.6914,6.6914,6.6094,6.4961,6.4062,6.3203,6.2383,6.1836,6.1719,6.1719,6.1719,6.1719,6.1719,6.1719,6.2109,6.2617,6.293,6.3242,6.3476,6.3476,6.375,6.3594,6.2383,6.2656,6.2695,6.1836,6.1719,6.1719,6.1719,6.1719,6.1719,6.1719,6.1719,6.1719,6.1719,6.2187,6.2422,6.2187,6.2383,6.2422,6.2187,6.2187,6.2031,6.1719,6.2031,6.2031,6.1719,6.1719,6.1719,6.1719,6.1719,6.1719,0.0,6.2577,6.375,6.293,6.2812,6.2695,6.1797,6.1601,0.0,6.039,6.0273,6.0312,6.0312,6.0312,6.0625,6.1562,6.164,6.1914,6.2773,6.3828,6.543,6.8008,6.9765,0.0,7.0625,0.0,0.0,0.0,0.0,0.0,7.1992,7.1992,7.1953,7.1914,7.1055,7.0625,7.0703,7.0625,7.0234,6.9492,6.9375,6.9297,6.9258,6.7656,0.0,0.0,0.0,0.0,0.0,6.6914,6.6914,6.6914,6.6914,6.6914,6.6914,6.6914,6.6914,6.6875,6.6836,6.6836,6.6875,6.6836,6.5625,6.4062,6.3242,6.2383,6.1719,6.1719,6.1719,6.1719,6.1719,6.1758,6.1797,6.1719,6.1836,6.2187,6.293,6.3789,6.4375,6.4375,6.5039,6.5078,6.3398,6.3125,6.289,6.2031,6.1836,6.1797,6.1797,6.1758,6.1719,6.1719,6.1719,6.1719,6.1719,6.1758,6.2148,6.2969,6.2226,6.2187,6.3047,6.3047,6.2617,6.1797,6.2578,6.2617,6.1797,6.1836,6.1836,6.1719,6.1758,6.1758,5.6712,0.0,6.0351,6.0156,6.1055,6.1797,0.0,6.0703,6.0273,5.8789,5.9023,5.9492,5.9492,5.9492,5.9961,6.1445,6.1133,6.1015,6.1875,6.4492,6.6992,6.8945,7.0664,7.1172,6.9844,0.0,0.0,0.0,0.0,7.1992,7.1992,7.1992,7.168,7.1015,7.0195,7.0078,7.0703,7.0078,6.9648,6.9414,6.8789,6.8476,6.8437,6.7383,0.0,0.0,0.0,0.0,6.6914,6.6914,6.6914,6.6914,6.6914,6.6914,6.6914,6.6914,6.6914,6.6797,6.6133,6.6328,6.6797,6.6133,6.4726,6.3281,6.3047,6.2383,6.1719,6.1719,6.1719,6.1719,6.1719,6.2187,6.2539,6.1875,6.3242,6.457,6.4101,6.4687,6.5273,6.5273,6.5469,6.5273,6.418,6.4531,6.4687,6.3828,6.3125,6.2695,6.2695,6.2109,6.1719,6.1719,6.1719,6.1719,6.1719,6.2305,6.2773,6.3008,6.2812,6.3086,6.3945,6.3359,6.289,6.2695,6.289,6.289,6.2695,6.3359,6.3008,6.1719,6.2383,6.2344,5.3859,5.5701,5.8008,5.8008,5.8984,5.9844,5.9375,5.9258,5.8867,5.7578,5.7695,5.8008,5.8008,5.832,5.914,6.082,6.0703,6.0976,6.2656,6.4844,6.7226,6.9765,7.0508,7.0898,0.0,0.0,0.0,0.0,0.0,7.1406,7.1406,7.1055,7.0625,7.0117,6.9336,6.9101,6.9531,6.9101,6.8672,6.8242,6.8203,6.8008,6.7578,6.7109,6.6914,0.0,0.0,0.0,6.6914,6.6914,6.6914,6.6914,6.6914,6.6914,6.6914,6.6914,6.6914,6.6797,6.5898,6.5664,6.5547,6.4687,6.3789,6.293,6.2539,6.207,6.1719,6.1719,6.1719,6.1719,6.1719,6.2031,6.2383,6.2305,6.3398,6.4492,6.4844,6.5273,6.5703,6.6133,6.6211,6.5937,6.5039,6.5273,6.5312,6.4414,6.3906,6.3437,6.3047,6.2578,6.2148,6.1758,6.1719,6.1719,6.1719,6.2148,6.2578,6.2969,6.2617,6.2969,6.4258,6.3867,6.3789,6.418,6.3789,6.3594,6.3594,6.4062,6.3594,6.2305,6.2773,6.2539,5.2023,5.3748,5.6055,5.6172,5.6953,5.7656,5.7539,5.75,5.7226,5.6211,5.6211,5.6406,5.6406,5.7226,5.8437,6.0117,6.0625,6.1758,6.4492,6.5547,6.7109,7.0156,7.0078,0.0,0.0,0.0,0.0,0.0,0.0,7.0508,7.0508,6.9844,6.9414,6.9219,6.8555,6.8125,6.8008,6.8008,6.7617,6.6914,6.7656,6.7617,6.6914,6.6914,6.6914,0.0,0.0,0.0,6.6914,6.6914,6.6914,6.6914,6.6914,6.6914,6.6914,6.6914,6.6836,6.6562,6.5703,6.4844,6.3984,6.3242,6.3008,6.2851,6.1953,6.1719,6.1719,6.1719,6.1719,6.1719,6.1719,6.1914,6.2226,6.2695,6.3203,6.3945,6.5156,6.5625,6.6015,6.6758,6.6914,6.668,6.5937,6.5781,6.5547,6.4805,6.457,6.4219,6.3476,6.3164,6.2734,6.1992,6.1797,6.1758,6.1875,6.1914,6.2265,6.3125,6.2265,6.2422,6.4023,6.4219,6.4726,6.5586,6.4883,6.4492,6.4492,6.4648,6.4101,6.3008,6.3125,6.2656,5.2765,5.2888,5.3476,5.4219,5.5625,5.6601,5.5859,5.5703,5.5234,5.3633,5.4453,5.5508,5.5508,5.6797,5.8437,6.0117,6.164,6.3789,0.0,0.0,6.8281,6.9531,0.0,0.0,0.0,0.0,0.0,0.0,0.0,0.0,6.9609,6.9531,6.914,6.8398,6.8242,6.7851,6.7109,6.7109,6.7031,6.6914,6.7031,6.7031,6.6914,6.6914,6.6914,0.0,0.0,6.6914,6.6914,6.6914,6.6914,6.6914,6.6914,6.6914,6.6914,6.6914,6.6445,6.5664,6.4805,6.3945,6.3164,6.3047,6.3008,6.2851,6.1953,6.1719,6.1719,6.1719,6.1719,6.1719,6.1719,6.2773,6.3555,6.2226,6.414,6.5976,6.4765,6.5664,6.6758,6.6875,6.6914,6.6875,6.6719,6.6719,6.664,6.6523,6.5859,6.5351,6.5234,6.3906,6.2969,6.2812,6.2148,6.1992,6.2734,6.2812,6.3164,6.4062,6.2578,6.2148,6.3164,6.3906,6.4726,6.5586,6.5469,6.539,6.539,6.6133,6.5273,6.3008,6.375,6.3242,5.2112,5.1942,5.2226,5.3086,5.4609,5.5781,5.539,5.5312,5.5078,5.4258,5.4726,5.543,5.5937,5.7422,5.9297,6.1445,6.2851,6.4258,6.5859,6.6484,6.7305,0.0,0.0,0.0,0.0,0.0,0.0,0.0,0.0,0.0,6.875,0.0,6.7226,6.6797,6.6797,6.6367,6.5508,6.5976,6.6445,6.6914,6.6914,6.6914,6.6914,6.6914,6.6914,6.6914,0.0,6.6914,6.6914,6.6914,6.6914,6.6914,6.6914,6.6914,6.6914,6.6914,6.6055,6.4844,6.4453,6.4023,6.3555,6.2617,6.293,6.3555,6.2656,6.2734,6.3008,6.2539,6.2383,6.2383,6.2383,6.3359,6.4219,6.3906,6.5039,6.6094,6.5781,6.6328,6.6914,6.6914,6.6914,6.6914,6.6914,6.6914,6.6914,6.6914,6.6562,6.6133,6.5664,6.4883,6.4023,6.3086,6.3047,6.3086,6.3008,6.3437,6.3672,6.3594,6.3281,6.3086,6.3008,6.3828,6.4492,6.4883,6.4883,6.5117,6.5586,6.6015,6.5586,6.4414,6.4805,6.4336,5.1678,5.157,5.1831,5.2539,5.3555,5.4531,5.5156,5.5156,5.5117,5.5508,5.5781,5.6055,5.6523,5.8164,6.0234,6.2617,6.3906,6.4765,6.5156,6.5781,6.6797,0.0,0.0,0.0,0.0,0.0,0.0,0.0,0.0,0.0,6.7617,6.6328,6.5508,6.5312,6.5312,6.4961,6.4297,6.4961,6.5625,6.6289,6.6484,6.6601,6.6601,6.6797,6.6914,6.6914,6.6914,6.6914,6.6875,6.668,6.6719,6.6875,6.6445,6.6406,6.6601,6.6601,6.5742,6.457,6.4375,6.4414,6.4336,6.2812,6.3359,6.4453,6.3555,6.3789,6.414,6.3476,6.3437,6.3515,6.3125,6.3789,6.4726,6.5195,6.5625,6.6015,6.6484,6.6758,6.6914,6.6914,6.6914,6.6914,6.6914,6.6914,6.6914,6.6914,6.6914,6.664,6.5976,6.5742,6.5078,6.375,6.4023,6.4101,6.3633,6.4414,6.4453,6.3359,6.375,6.3594,6.2734,6.3515,6.3984,6.3984,6.4219,6.4726,6.5586,6.539,6.5312,6.5312,6.5312,6.4844,5.2409,5.2406,5.2472,5.2655,5.2187,5.2305,5.4765,5.4687,5.4531,5.6172,5.7148,5.7461,5.6758,5.8633,6.0898,6.2695,6.4414,6.6055,6.7695,0.0,0.0,0.0,0.0,0.0,0.0,0.0,0.0,0.0,0.0,0.0,6.582,6.5664,0.0,6.4414,6.4375,6.4375,6.4297,6.4375,6.4414,6.4492,6.5312,6.5703,6.5703,6.6523,6.6914,6.6914,6.6914,6.6914,6.6836,6.6015,6.6172,6.6758,6.5117,6.4961,6.5703,6.5703,6.5625,6.539,6.457,6.4844,6.5351,6.4414,6.4726,6.5351,6.4453,6.4258,6.4297,6.4219,6.4805,6.5039,6.3437,6.4258,6.5312,6.457,6.5625,6.6601,6.5859,6.6328,6.6914,6.6914,6.6914,6.6914,6.6914,6.6914,6.6914,6.6914,6.6914,6.6875,6.6797,6.6094,6.5547,6.543,6.4765,6.4609,6.5351,6.6211,6.6015,6.4297,6.3515,6.2695,6.1836,6.2617,6.3086,6.3086,6.3906,6.4726,6.5586,6.4805,6.4375,6.4375,6.4375,6.3945,5.1674,5.2147,5.2761,5.3359,5.3242,5.3437,5.4961,5.5898,5.6758,5.7969,5.8476,5.875,5.8945,6.0625,6.2422,6.3594,6.4805,6.6015,6.7226,0.0,0.0,0.0,0.0,0.0,0.0,0.0,0.0,0.0,0.0,0.0,0.0,6.457,0.0,6.3515,6.3476,6.3242,6.2695,6.3203,6.3203,6.2695,6.4101,6.5078,6.5586,6.539,6.5586,6.6094,6.6094,6.6406,6.6836,6.5976,6.6094,6.6836,6.6172,6.5781,6.5664,6.6211,6.6055,6.5547,6.5234,6.5664,6.6172,6.4765,6.5273,6.625,6.5351,6.5508,6.5781,6.5273,6.5742,6.6133,6.4922,6.5508,6.6328,6.6015,6.6406,6.6797,6.6484,6.668,6.6914,6.6914,6.6914,6.6914,6.6914,6.6914,6.6914,6.6914,6.6914,6.6914,6.6914,6.6601,6.6211,6.5664,6.5312,6.5469,6.6328,6.6719,6.6406,6.5195,6.4297,6.3164,6.1758,6.2031,6.2187,6.2187,6.2539,6.3398,6.4805,6.4453,6.4844,6.5898,6.5351,6.4922,5.1203,5.1718,5.245,5.3359,5.3984,5.4726,5.5859,5.7031,5.8281,5.9687,5.957,5.9453,6.0234,6.1367,6.2461,0.0,6.4453,6.539,0.0,0.0,0.0,0.0,0.0,0.0,0.0,0.0,0.0,0.0,0.0,0.0,0.0,6.3633,0.0,0.0,6.2578,6.2305,6.1719,6.2305,6.2422,6.2109,6.3047,6.3945,6.4765,6.4453,6.4648,6.5195,6.5195,6.5547,6.6015,6.5156,6.4961,6.5351,6.6172,6.5976,6.5312,6.6484,6.6523,6.6015,6.6015,6.6406,6.6719,6.5508,6.5937,6.6797,6.6172,6.6445,6.6797,6.6172,6.6445,6.6758,6.6172,6.6445,6.6914,6.6914,6.6914,6.6914,6.6914,6.6914,6.6914,6.6914,6.6914,6.6914,6.6914,6.6914,6.6914,6.6914,6.6914,6.6914,6.6914,6.6914,6.668,6.6055,6.6015,6.625,6.6836,6.6914,6.6523,6.5664,6.5039,6.4062,6.2578,6.2539,6.2539,6.2539,6.2539,6.3125,6.4297,6.4297,6.4922,6.6055,6.5742,6.5469,5.1158,5.1191,5.1451,5.246,5.4023,5.5781,5.75,5.789,5.8633,6.1172,6.0351,5.9453,6.0234,6.039,6.0703,6.1562,6.3164,6.4297,0.0,0.0,0.0,0.0,0.0,0.0,0.0,0.0,0.0,0.0,0.0,0.0,0.0,6.3008,0.0,0.0,6.1719,6.1719,6.1719,6.1719,6.2148,6.2969,6.2109,6.2148,6.3047,6.3906,6.4297,6.4297,6.4297,6.4297,6.4219,6.3359,6.25,6.1953,6.457,6.5078,6.4531,6.625,6.6914,6.6914,6.6914,6.6914,6.6914,6.6914,6.6914,6.6914,6.6914,6.6914,6.6914,6.6914,6.6914,6.6914,6.6914,6.6914,6.6914,6.6914,6.6914,6.6914,6.6914,6.6914,6.6914,6.6914,6.6914,6.6914,6.6914,6.6914,6.6914,6.6914,6.6914,6.6914,6.6914,6.6914,6.6914,6.6914,6.6914,6.6914,6.6914,6.6914,6.6523,6.5664,6.5625,6.5234,6.4336,6.4297,6.4297,6.4297,6.4297,6.4297,6.4297,6.4336,6.4336,6.4336,6.5195,6.5156,5.1507,5.1787,5.2455,5.3398,5.4922,5.668,5.8437,5.8828,5.918,6.0508,6.0898,6.0859,6.0469,6.0898,6.1406,6.164,6.2656,0.0,0.0,0.0,0.0,0.0,0.0,0.0,0.0,0.0,0.0,0.0,0.0,0.0,0.0,6.2422,0.0,0.0,6.1719,6.1719,6.1719,6.1719,6.1836,6.207,6.1836,6.2148,6.3008,6.2617,6.2812,6.3398,6.3398,6.3711,6.4297,6.4023,6.3398,6.2812,6.4805,6.543,6.5351,6.6484,6.6914,6.6914,6.6914,6.6914,6.6914,6.6914,6.6914,6.6914,6.6914,6.6914,6.6914,6.6914,6.6914,6.6914,6.6914,6.6914,6.6914,6.6914,6.6914,6.6914,6.6914,6.6914,6.6914,6.6914,6.6914,6.6914,6.6914,6.6914,6.6914,6.6914,6.6914,6.6914,6.6914,6.6914,6.6914,6.6914,6.6914,6.6914,6.6914,6.6914,6.6797,6.6523,6.6523,6.5859,6.4375,6.4297,6.4297,6.4297,6.4297,6.4609,6.5234,6.582,6.6133,6.6133,6.6406,6.6055,5.1521,5.203,5.3007,5.4219,5.582,5.7578,5.9297,5.9922,6.0312,6.082,6.1055,6.1133,6.0937,6.1055,0.0,6.164,0.0,0.0,0.0,0.0,0.0,0.0,0.0,0.0,0.0,0.0,0.0,0.0,0.0,0.0,0.0,6.1992,0.0,0.0,6.1719,6.1719,6.1719,6.1719,6.1719,6.1719,6.1719,6.1992,6.2461,6.1953,6.1992,6.2461,6.2461,6.2773,6.3281,6.3281,6.2969,6.2656,6.4414,6.5078,6.5234,6.6445,6.6914,6.6914,6.6914,6.6914,6.6914,6.6914,6.6914,6.6914,6.6914,6.6914,6.6914,6.6914,6.6914,6.6914,6.6914,6.6914,6.6914,6.6914,6.6914,6.6914,6.6914,6.6914,6.6914,6.6914,6.6914,6.6992,6.7344,6.7148,6.7031,6.7344,6.7109,6.6914,6.6914,6.6914,6.6914,6.6914,6.6914,6.6914,6.6914,6.6914,6.7031,6.7383,6.7422,6.6953,6.5898,6.5508,6.5312,6.5312,6.5312,6.5586,6.6133,6.6992,6.7422,6.7422,6.7773,6.7461,5.1639,5.2226,5.3203,5.4883,5.668,5.8476,6.0156,6.1133,6.168,6.1601,6.1015,6.0742,6.1562,6.1055,6.0781,6.1562,0.0,0.0,0.0,0.0,0.0,0.0,0.0,0.0,0.0,0.0,0.0,0.0,0.0,0.0,0.0,6.1719,0.0,6.1719,6.1719,6.1719,6.1719,6.1719,6.1719,0.0,6.1719,6.1719,6.1719,6.1719,6.1719,6.1719,6.1719,6.1719,6.1719,6.1719,6.1719,6.1875,6.3515,6.4219,6.4492,6.6172,6.6836,6.6914,6.6914,6.6914,6.6914,6.6914,6.6914,6.6914,6.6914,6.6914,6.6914,6.6914,6.6914,6.6914,6.6914,6.6914,6.6914,6.6914,6.6914,6.6914,6.6914,6.6914,6.6914,6.6914,6.6914,6.7148,6.7969,6.7422,6.7187,6.8086,6.7461,6.6914,6.6992,6.6953,6.6914,6.6992,6.7031,6.7031,6.7109,6.7148,6.7461,6.8281,6.832,6.832,6.832,6.7461,6.6992,6.6914,6.6992,6.7031,6.7031,6.7969,6.8398,6.832,6.9219,6.914,5.3242,5.3594,5.3984,5.5039,5.7109,5.9375,6.1055,6.1562,6.1523,6.082,6.1055,6.1484,6.168,6.1562,6.1484,0.0,0.0,0.0,0.0,0.0,0.0,0.0,0.0,0.0,0.0,0.0,0.0,0.0,0.0,0.0,6.1719,6.1719,0.0,6.1719,6.1719,6.1719,6.1719,6.1719,6.1719,0.0,6.1719,6.1719,6.1719,6.1719,6.1719,6.1719,6.1719,6.1719,6.1719,6.1719,6.1719,6.1797,6.2851,6.3711,6.4414,6.5508,6.6328,6.6914,6.6914,6.6914,6.6914,6.6914,6.6914,6.6914,6.6914,6.6914,6.6914,6.6914,6.6914,6.6914,6.6914,6.6914,6.6914,6.6914,6.6914,6.6914,6.6914,6.6914,6.6914,6.6914,6.6914,6.6953,6.7148,6.7031,6.7187,6.8086,6.7461,6.7148,6.7812,6.7305,6.7148,6.7851,6.793,6.8164,6.8828,6.8906,6.9023,6.9219,6.918,6.918,6.9219,6.8398,6.7617,6.6914,6.7578,6.793,6.793,6.9414,6.9805,6.914,7.0039,6.9961,5.2734,5.3984,5.5664,5.7305,5.8789,6.0117,6.1406,6.1719,6.1562,6.1133,6.1367,6.1719,6.1719,6.1719,6.1719,0.0,0.0,0.0,0.0,0.0,0.0,0.0,0.0,0.0,0.0,0.0,0.0,0.0,0.0,6.1719,6.1719,6.1719,6.1719,6.1719,6.1719,6.1719,6.1719,6.1719,6.1719,6.1719,6.1719,6.1719,6.1719,6.1719,6.1719,6.1719,6.1719,6.1719,6.1719,6.1719,6.1719,6.1797,6.2656,6.3515,6.4414,6.5273,6.6133,6.6914,6.6914,6.6914,6.6914,6.6914,6.6914,6.6914,6.6914,6.6914,6.6914,6.6914,6.6914,6.6914,6.6914,6.6914,6.6914,6.6914,6.6914,6.6914,6.6914,6.6914,6.6914,6.6914,6.6914,6.7031,6.7461,6.7539,6.7539,6.7578,6.7187,6.7226,6.8086,6.7812,6.7851,6.8711,6.8828,6.8984,6.9414,6.9453,6.9648,7.0039,7.0039,7.0039,7.0078,6.9648,6.8984,6.8164,6.8164,6.8594,6.9414,7.0273,7.0664,7.0664,7.1094,7.1094,5.2187,5.4297,5.7226,5.9765,6.0312,6.0469,6.1484,6.1719,6.1719,6.1719,6.1719,6.1719,6.1719,6.1719,0.0,0.0,0.0,0.0,0.0,0.0,0.0,0.0,0.0,0.0,0.0,0.0,0.0,0.0,0.0,6.1719,6.1719,6.1719,6.1719,6.1719,6.1719,6.1719,6.1719,6.1719,6.1719,6.1719,6.1719,6.1719,6.1719,6.1719,6.1719,6.1719,6.1719,6.1719,6.1719,6.1719,6.1719,6.1758,6.25,6.332,6.414,6.4883,6.5703,6.6484,6.6601,6.668,6.6719,6.6836,6.6914,6.6914,6.6914,6.6914,6.6914,6.6914,6.6914,6.6914,6.6914,6.6914,6.6914,6.6914,6.6914,6.6914,6.6914,6.6914,6.6914,6.6914,6.6914,6.7148,6.7851,6.7969,6.7773,6.7226,6.6992,6.7265,6.8281,6.8281,6.8594,6.9609,6.9726,6.9765,6.9922,6.9883,7.0156,7.0898,7.0937,7.0937,7.0937,7.0781,7.0469,6.9922,6.9062,6.9297,7.0703,7.0859,7.1289,7.1992,7.1836,7.1757,5.4414,5.5664,5.7226,5.9765,5.9883,5.9765,6.1328,6.1719,6.1719,6.1719,6.1719,6.1719,6.1719,6.1719,0.0,0.0,0.0,0.0,0.0,0.0,0.0,0.0,0.0,0.0,0.0,0.0,0.0,0.0,6.1719,6.1719,6.1719,6.1719,6.1719,6.1719,6.1719,6.1719,6.1719,6.1719,6.1719,6.1719,6.1719,6.1719,6.1719,6.1719,6.1719,6.1719,6.1719,6.1719,6.1719,6.1719,6.1719,6.1719,6.1836,6.2422,6.3203,6.3281,6.3906,6.4765,6.5508,6.5781,6.5898,6.664,6.6914,6.6914,6.6914,6.6914,6.6914,6.6914,6.6914,6.6914,6.6914,6.6914,6.6914,6.6914,6.6914,6.6914,6.6914,6.6914,6.6914,6.6914,6.6914,6.6953,6.7031,6.707,6.7305,6.793,6.7383,6.7461,6.9023,6.8633,6.8789,7.0351,7.0547,7.0859,7.1601,7.164,7.1719,7.1836,7.1836,7.1836,7.1836,7.1094,7.1015,7.164,7.082,7.0469,7.0703,7.1445,7.1875,7.1992,7.1211,7.0856,5.543,5.5937,5.6601,5.9648,5.9805,5.9648,6.1328,6.1719,6.1719,6.1719,6.1719,6.1719,6.1719,0.0,0.0,0.0,0.0,0.0,0.0,0.0,0.0,0.0,0.0,0.0,0.0,0.0,0.0,0.0,6.1719,6.1484,6.1015,6.1445,6.1484,6.0976,6.1445,6.1719,6.1719,6.1719,6.1719,6.1719,6.1719,6.1719,6.1719,6.1719,6.1719,6.1719,6.1719,6.1719,6.1719,6.1719,6.1719,6.1719,6.1719,6.2226,6.3008,6.3008,6.3555,6.4414,6.5312,6.5586,6.5742,6.6601,6.6914,6.6914,6.6914,6.6914,6.6914,6.6914,6.6914,6.6914,6.6914,6.6914,6.6914,6.6914,6.6914,6.6914,6.6914,6.6914,6.6914,6.6914,6.6914,6.6914,6.6914,6.6914,6.7187,6.8086,6.7851,6.8242,6.9922,6.9805,7.0078,7.1289,7.1445,7.1562,7.1953,7.1992,7.1992,7.1992,7.1992,7.1992,7.1992,7.164,7.1601,7.1992,7.1133,7.0937,7.1445,7.1797,7.1992,7.1992,7.1601,7.1128,5.5351,5.5625,5.5976,5.875,5.9336,5.957,6.1055,6.1523,6.1719,6.1719,6.1719,6.1719,6.1719,0.0,0.0,0.0,0.0,0.0,0.0,0.0,0.0,0.0,0.0,0.0,0.0,0.0,0.0,0.0,6.1719,6.1328,6.0469,6.1015,6.0976,6.0117,6.0937,6.1289,6.1055,6.1289,6.1367,6.1367,6.1601,6.1719,6.1719,6.1719,6.1719,6.1719,6.1719,6.1719,6.1719,6.1719,6.1719,6.1719,6.1719,6.2109,6.2656,6.2656,6.3086,6.375,6.4648,6.4922,6.5117,6.6211,6.6562,6.6601,6.6836,6.6914,6.6914,6.6914,6.6914,6.6914,6.6914,6.6914,6.6914,6.6914,6.6914,6.6953,6.7187,6.7226,6.7305,6.75,6.7539,6.7539,6.7539,6.7539,6.7773,6.8398,6.8515,6.9023,7.0508,7.0703,7.1015,7.1914,7.1992,7.1992,7.1992,7.1992,7.1992,7.1992,7.1992,7.1992,7.1992,7.1992,7.1992,7.1992,7.1367,7.1367,7.1992,7.1992,7.1875,7.164,7.1445,7.0812,5.3867,5.4726,5.5547,5.6562,5.8008,5.9414,6.0273,6.1094,6.1719,6.1719,6.1719,6.1719,6.1719,0.0,0.0,0.0,0.0,0.0,0.0,0.0,0.0,0.0,0.0,0.0,0.0,0.0,0.0,0.0,6.1719,6.1328,6.0469,6.043,6.0117,5.9297,6.0039,6.0117,5.9336,6.0078,6.0469,6.0469,6.1328,6.1719,6.1719,6.1719,6.1719,6.1719,6.1719,6.1719,6.1719,6.1719,6.1719,6.1719,6.1719,6.1719,6.1758,6.1758,6.1797,6.1953,6.2812,6.3125,6.3437,6.5117,6.5664,6.582,6.664,6.6914,6.6914,6.6914,6.6914,6.6914,6.6914,6.6914,6.6914,6.6914,6.6914,6.7148,6.7969,6.8125,6.8359,6.9101,6.9258,6.9258,6.9258,6.9336,6.9375,6.9336,6.9336,6.9687,7.0586,7.0703,7.1015,7.1914,7.1992,7.1992,7.1992,7.1992,7.1992,7.1992,7.1992,7.1992,7.1992,7.1992,7.1992,7.1992,7.1953,7.1953,7.1992,7.1992,7.1562,7.0742,6.9922,6.8964,5.3086,5.3789,5.4805,5.625,5.707,5.789,5.9297,6.0273,6.0859,6.0859,6.1328,6.1719,0.0,0.0,0.0,0.0,0.0,0.0,0.0,0.0,0.0,0.0,0.0,0.0,0.0,0.0,0.0,0.0,0.0,6.0508,5.9687,5.9648,5.9258,5.8398,5.918,5.9492,5.9219,6.0,6.039,6.039,6.1289,6.1719,6.1719,6.1719,6.1719,6.1719,6.1719,6.1719,6.1719,6.1719,6.1719,6.1719,6.1719,6.1719,6.1719,6.1719,6.1719,6.1836,6.2695,6.3008,6.3281,6.5039,6.5586,6.5742,6.664,6.6914,6.6914,6.6914,6.6914,6.6914,6.6914,6.6914,6.6914,6.6914,6.6914,6.7305,6.8711,6.8594,6.8437,6.9258,6.9414,6.9414,6.9414,6.9453,6.9687,7.0156,7.0234,7.0547,7.1406,7.1523,7.164,7.1953,7.1992,7.1992,7.1992,7.1992,7.1992,7.1992,7.2539,7.2578,7.2031,7.2539,7.2578,7.1992,7.1992,7.1992,7.1992,7.1992,7.1795,7.1387,7.0569,6.9575,5.2266,5.2891,5.3906,5.5351,5.5937,5.6523,5.8008,5.8984,5.957,5.957,6.0469,6.125,0.0,0.0,0.0,0.0,0.0,0.0,0.0,0.0,0.0,0.0,0.0,0.0,0.0,0.0,0.0,0.0,0.0,0.0,5.8828,5.875,5.8515,5.793,5.8164,5.8476,5.875,5.9297,5.957,5.957,6.043,6.1015,6.125,6.125,6.1406,6.1719,6.1719,6.1719,6.1719,6.1719,6.1719,6.1719,6.1719,6.1719,6.1719,6.1719,6.1719,6.1797,6.2344,6.2578,6.2851,6.4609,6.5156,6.539,6.6562,6.6914,6.6914,6.6914,6.6914,6.6914,6.6914,6.6914,6.6914,6.6914,6.6914,6.7305,6.875,6.8828,6.8945,7.0078,7.0273,7.0273,7.0273,7.0312,7.0508,7.1055,7.1133,7.1367,7.1914,7.1992,7.1992,7.1992,7.1992,7.1992,7.1992,7.1992,7.1992,7.1992,7.2539,7.2734,7.2461,7.2695,7.2734,7.2422,7.2148,7.1875,7.1562,7.1562,7.1362,7.0936,7.0428,6.9878,0.0,0.0,0.0,5.375,5.4609,5.5469,5.6328,5.7187,5.7812,5.7851,5.918,6.0312,0.0,0.0,0.0,0.0,0.0,0.0,0.0,0.0,0.0,0.0,0.0,0.0,0.0,0.0,0.0,0.0,6.0351,5.9609,5.8008,5.789,5.7851,5.7851,5.7031,5.6992,5.7851,5.789,5.789,5.789,5.8789,5.9609,6.039,6.039,6.0898,6.1719,6.1719,6.1719,6.1719,6.1719,6.1719,6.1719,6.1719,6.1719,6.1719,6.1719,6.1719,6.1719,6.1719,6.1719,6.1992,6.3711,6.4297,6.4609,6.6328,6.6875,6.6914,6.6914,6.6914,6.6914,6.6914,6.6914,6.6914,6.6914,6.6914,6.7148,6.8008,6.8828,6.9883,7.1601,7.1992,7.1992,7.1992,7.1992,7.1992,7.1992,7.1992,7.1992,7.1992,7.1992,7.1992,7.1992,7.1992,7.1992,7.1992,7.1992,7.1992,7.1992,7.2031,7.2422,7.3242,7.2461,7.2422,7.3281,7.2422,7.1601,7.0781,7.0742,7.0268,6.9372,6.9402,6.9699,5.2187,0.0,0.0,0.0,0.0,0.0,5.4531,5.539,5.6211,5.6836,5.7812,5.8789,5.9414,0.0,0.0,0.0,0.0,0.0,0.0,0.0,0.0,0.0,0.0,0.0,0.0,0.0,0.0,0.0,5.9297,5.8398,5.793,5.7305,5.6953,5.6953,5.6719,5.6719,5.6953,5.7578,5.789,5.789,5.8789,5.9609,6.039,6.039,6.0898,6.1719,6.1719,6.1719,6.1719,6.1719,6.1719,6.1719,6.1719,6.1719,6.1719,6.1719,6.1719,6.1719,6.1719,6.1719,6.1875,6.3008,6.3789,6.4492,6.5625,6.6406,6.6914,6.6914,6.6914,6.6914,6.6914,6.6914,6.6914,6.6914,6.6914,6.7148,6.8008,6.8359,6.9023,7.0742,7.1562,7.1992,7.1992,7.1992,7.1992,7.1992,7.1992,7.1992,7.1992,7.1992,7.1992,7.1992,7.1992,7.1992,7.1992,7.1992,7.1992,7.1992,7.2578,7.2773,7.2383,7.2734,7.3047,7.3281,7.2422,7.2187,7.2578,7.1953,7.143,7.1034,7.1459,7.1445,5.2031,5.1797,5.1601,5.2461,0.0,0.0,5.3242,5.3867,5.4375,0.0,5.5976,5.707,5.7969,0.0,0.0,0.0,0.0,0.0,0.0,0.0,0.0,0.0,0.0,0.0,0.0,6.1015,6.0781,6.043,5.918,5.8125,5.7383,5.6875,5.6601,5.6601,5.6601,5.6601,5.6601,5.7109,5.7344,5.7344,5.7851,5.8555,5.9375,5.9726,6.0351,6.1172,6.1523,6.1719,6.1719,6.1719,6.1719,6.1719,6.1719,6.1719,6.1719,6.1719,6.1719,6.1719,6.1719,6.1719,6.1914,6.3125,6.3906,6.4531,6.5781,6.6484,6.6914,6.6914,6.6914,6.6914,6.6914,6.6914,6.6914,6.6914,6.7187,6.7578,6.8086,6.875,6.9531,7.0508,7.1094,7.1562,7.1953,7.1992,7.1992,7.1992,7.1992,7.1992,7.1992,7.1992,7.1992,7.1992,7.1992,7.1992,7.1992,7.1992,7.1992,7.1992,7.2461,7.2695,7.2539,7.3047,7.3476,7.3828,7.3008,7.2577,7.2688,7.1829,7.1312,7.1095,7.1756,7.2181,5.1484,5.1484,5.1601,5.2344,0.0,0.0,5.2383,5.2578,5.2617,0.0,5.4062,5.5469,5.6406,0.0,0.0,0.0,0.0,0.0,0.0,0.0,0.0,0.0,0.0,0.0,6.0273,6.0898,6.0976,6.0195,5.9375,5.8242,5.668,5.6601,5.6601,5.6601,5.6601,5.6601,5.6601,5.6601,5.6601,5.6601,5.6601,5.707,5.793,5.8789,5.9648,6.0469,6.1328,6.1719,6.1719,6.1719,6.1719,6.1719,6.1719,6.1719,6.1719,6.1719,6.1719,6.1719,6.1719,6.1719,6.1953,6.3515,6.414,6.4609,6.6133,6.6758,6.6914,6.6914,6.6914,6.6914,6.6914,6.6914,6.6914,6.6914,6.75,6.8086,6.8164,6.9375,7.0469,7.0664,7.0781,7.1094,7.1875,7.1992,7.1992,7.1992,7.1992,7.1992,7.1992,7.1992,7.1992,7.1992,7.1992,7.1992,7.1992,7.1992,7.1992,7.1992,7.1992,7.2344,7.3125,7.3164,7.3555,7.4453,7.3672,7.2806,7.1783,7.1078,7.0683,7.0649,7.1386,7.2607,5.2031,0.0,0.0,0.0,0.0,0.0,5.1601,5.1641,5.2031,0.0,5.4023,5.4726,5.6328,5.6758,0.0,0.0,0.0,0.0,0.0,0.0,0.0,0.0,0.0,0.0,5.9414,5.8945,5.8555,5.8398,5.7578,5.6953,5.6601,5.6601,5.6601,5.6601,5.6601,5.6601,5.6601,5.6601,5.6601,5.6601,5.6601,5.707,5.793,5.8789,5.9648,6.0469,6.1328,6.1719,6.1719,6.1719,6.1719,6.1719,6.1719,6.1719,6.1719,6.1719,6.1719,6.1719,6.1719,6.1719,6.1758,6.2109,6.3164,6.4375,6.4687,6.5781,6.6914,6.6914,6.6914,6.6914,6.6914,6.6914,6.6914,6.6914,6.7031,6.7344,6.8047,6.8476,6.9101,7.043,7.1289,7.1797,7.1953,7.1992,7.1992,7.1992,7.1992,7.1992,7.1992,7.1992,7.1992,7.1992,7.1992,7.1992,7.1992,7.1992,7.1992,7.1992,7.1992,7.207,7.2265,7.2265,7.2656,7.3555,7.3398,7.2797,7.1731,7.157,7.2114,7.329,7.402,7.4928,0.0,0.0,0.0,5.1406,0.0,0.0,0.0,5.1406,5.1641,5.2539,5.2695,5.3086,5.4414,5.4648,5.4922,0.0,0.0,0.0,0.0,0.0,0.0,0.0,0.0,0.0,5.8594,5.8906,5.8789,5.7969,5.789,5.7539,5.664,5.6601,5.6601,5.6601,5.6601,5.6601,5.6601,5.6601,5.6601,5.6601,5.6601,5.6836,5.7305,5.8594,5.9414,5.9883,6.1133,6.1719,6.1719,6.1719,6.1719,6.1719,6.1719,6.1719,6.1719,6.1719,6.1719,6.1719,6.1719,6.1719,6.1758,6.2226,6.3242,6.4375,6.4805,6.5859,6.6914,6.6914,6.6914,6.6914,6.6914,6.6914,6.6914,6.6914,6.7539,6.8281,6.875,6.9492,7.0351,7.1172,7.1719,7.1992,7.1992,7.1992,7.1992,7.1992,7.1992,7.1992,7.1992,7.1992,7.1992,7.1992,7.1992,7.1992,7.1992,7.1992,7.1992,7.1992,7.1992,7.1992,7.1992,7.2422,7.2851,7.3281,7.3238,7.2693,7.17,7.1634,7.1941,7.2686,7.3928,7.4734,0.0,0.0,0.0,0.0,0.0,5.1366,0.0,0.0,0.0,5.1601,5.1641,0.0,0.0,0.0,0.0,0.0,0.0,0.0,0.0,0.0,0.0,0.0,0.0,0.0,0.0,5.8711,5.8984,5.7969,5.8242,5.7969,5.6914,5.668,5.6601,5.6601,5.6601,5.6601,5.6601,5.6601,5.6601,5.6601,5.6601,5.6601,5.664,5.8398,5.9219,5.9297,6.0976,6.1719,6.1719,6.1719,6.1719,6.1719,6.1719,6.1719,6.1719,6.1719,6.1719,6.1719,6.1719,6.1719,6.1836,6.2539,6.3437,6.4453,6.5351,6.6211,6.6914,6.6914,6.6914,6.6914,6.6914,6.6914,6.6953,6.7109,6.8164,6.9258,6.9648,7.0781,7.1797,7.1953,7.1992,7.1992,7.1992,7.1992,7.1992,7.1992,7.1992,7.1992,7.1992,7.1992,7.1992,7.1992,7.1992,7.1992,7.1992,7.1992,7.1992,7.1992,7.1992,7.1992,7.1992,7.2695,7.3047,7.3006,7.2907,7.2455,7.1665,7.1551,7.1502,7.1562,7.2993,7.3728,0.0,0.0,0.0,0.0,5.1272,0.0,0.0,0.0,5.1601,5.2383,0.0,0.0,0.0,0.0,0.0,0.0,0.0,0.0,0.0,0.0,0.0,0.0,0.0,0.0,0.0,5.6211,5.6445,5.7812,5.6562,5.6328,5.7695,5.7031,5.6601,5.6601,5.6601,5.6601,5.6601,5.6601,5.6601,5.6601,5.6601,5.6601,5.664,5.8398,5.9219,5.9297,6.0976,6.1719,6.1719,6.1719,6.1719,6.1719,6.1719,6.1719,6.1719,6.1719,6.1719,6.1719,6.1719,6.1719,6.1719,6.1836,6.2969,6.4453,6.5351,6.6211,6.6914,6.6914,6.6914,6.6914,6.6914,6.6914,6.7109,6.7851,6.8203,6.875,7.0234,7.0703,7.1094,7.1836,7.1992,7.1992,7.1992,7.1992,7.1992,7.1992,7.1992,7.1992,7.1992,7.1992,7.1992,7.1992,7.1992,7.1992,7.1992,7.1992,7.1992,7.1992,7.1992,7.1992,7.1992,7.2109,7.2106,7.1958,7.1951,7.1798,7.1513,7.1489,7.1813,7.2452,7.2645,7.3148,0.0,0.0,0.0,0.0,0.0,0.0,5.1132,0.0,5.141,0.0,0.0,0.0,0.0,0.0,0.0,0.0,5.2578,0.0,0.0,0.0,0.0,0.0,0.0,0.0,0.0,0.0,0.0,0.0,5.5898,5.6133,5.6367,5.6055,5.6094,5.6562,5.6601,5.6601,5.6601,5.6601,5.6601,5.6601,5.6601,5.6601,5.664,5.789,5.8711,5.9258,6.043,6.1211,6.1719,6.1719,6.1719,6.1719,6.1719,6.1719,6.1719,6.1719,6.1719,6.1719,6.1719,6.1719,6.1797,6.2305,6.3281,6.4453,6.5351,6.6211,6.6914,6.6914,6.6914,6.6914,6.6914,6.6914,6.6992,6.7344,6.8203,6.9101,6.9844,7.0781,7.1562,7.1914,7.1992,7.1992,7.1992,7.1992,7.1992,7.1992,7.1992,7.1992,7.1992,7.1992,7.1992,7.1992,7.1992,7.1992,7.1992,7.1992,7.1992,7.1992,7.1992,7.1992,7.1992,7.1992,7.1949,7.1795,7.1753,7.1655,7.1481,7.1415,7.1541,7.1872,7.2877,7.3535,5.0384,0.0,0.0,0.0,0.0,0.0,0.0,0.0,0.0,0.0,0.0,0.0,0.0,0.0,0.0,5.2226,0.0,5.1719,0.0,0.0,0.0,0.0,0.0,0.0,0.0,0.0,0.0,0.0,0.0,5.582,5.5664,5.543,5.5703,5.6562,5.6601,5.6601,5.6601,5.6601,5.6601,5.6601,5.6601,5.6601,5.664,5.75,5.8242,5.8906,5.9961,6.0742,6.1367,6.1601,6.1719,6.1719,6.1719,6.1719,6.1719,6.1719,6.1719,6.1719,6.1719,6.1719,6.1797,6.2422,6.3398,6.4414,6.5039,6.6015,6.6914,6.6914,6.6914,6.6914,6.6914,6.6914,6.6953,6.7187,6.8203,6.9219,6.9726,7.0781,7.1719,7.1953,7.1992,7.1992,7.1992,7.1992,7.1992,7.1992,7.1992,7.1992,7.1992,7.1992,7.1992,7.1992,7.1992,7.1992,7.1992,7.1992,7.1992,7.1992,7.1992,7.1992,7.1992,7.1992,7.1946,7.1767,7.1702,7.1621,7.1443,7.1337,7.1291,7.133,7.2607,7.3187,0.0,0.0,0.0,5.072,0.0,0.0,0.0,0.0,5.1203,0.0,0.0,0.0,0.0,0.0,5.1349,5.1445,5.1406,0.0,0.0,0.0,0.0,0.0,0.0,0.0,0.0,0.0,0.0,0.0,0.0,0.0,5.6484,5.5742,5.5703,5.6562,5.6601,5.6601,5.6601,5.6601,5.6601,5.6601,5.6601,5.6601,5.664,5.75,5.793,5.8047,5.9687,6.043,6.0508,6.1367,6.1719,6.1719,6.1719,6.1719,6.1719,6.1719,6.1719,6.1719,6.1719,6.1719,6.1719,6.1719,6.289,6.4297,6.4336,6.5547,6.6914,6.6914,6.6914,6.6914,6.6914,6.6914,6.7109,6.7969,6.8203,6.8672,7.0312,7.0703,7.0976,7.1836,7.1992,7.1992,7.1992,7.1992,7.1992,7.1992,7.1992,7.1992,7.1992,7.1992,7.1992,7.1992,7.1992,7.1992,7.1992,7.1992,7.1992,7.1992,7.1992,7.1992,7.1992,7.1992,7.1897,7.1711,7.1705,7.1566,7.1302,7.1302,7.1291,7.1291,7.1369,7.1369,0.0,0.0,4.9784,5.0055,0.0,0.0,0.0,0.0,0.0,0.0,0.0,0.0,0.0,0.0,5.1263,5.1309,5.1315,5.1437,0.0,0.0,0.0,0.0,0.0,0.0,0.0,0.0,0.0,0.0,0.0,0.0,0.0,5.4297,5.4844,5.5703,5.6289,5.6601,5.6601,5.6601,5.6601,5.6601,5.6601,5.6601,5.6601,5.6914,5.7344,5.7969,5.9101,5.9922,6.0469,6.1328,6.1719,6.1719,6.1719,6.1719,6.1719,6.1719,6.1719,6.1719,6.1719,6.1719,6.1719,6.1719,6.289,6.4297,6.4297,6.5508,6.6914,6.6914,6.6914,6.6914,6.6914,6.6914,6.6953,6.7265,6.7773,6.8359,6.8906,6.9922,7.0781,7.1094,7.1601,7.1992,7.1992,7.1992,7.1992,7.1992,7.1992,7.1992,7.1992,7.1992,7.1992,7.1992,7.1992,7.1992,7.1992,7.1992,7.1992,7.1992,7.1992,7.1992,7.1992,7.1992,7.1897,7.1705,7.17,7.1838,7.2142,7.1562,7.1601,7.2142,7.1562,7.1601,4.8005,4.8353,0.0,4.9165,4.9243,0.0,5.0279,0.0,0.0,0.0,0.0,0.0,0.0,0.0,5.1183,5.1261,5.1286,5.1309,0.0,5.1875,0.0,0.0,0.0,0.0,0.0,0.0,0.0,0.0,0.0,0.0,0.0,0.0,5.4414,5.5273,5.6133,5.6601,5.6601,5.6601,5.6601,5.6601,5.6601,5.6601,5.6601,5.6914,5.7187,5.75,5.8672,5.9492,6.0039,6.0898,6.1406,6.1719,6.1719,6.1719,6.1719,6.1719,6.1719,6.1719,6.1719,6.1719,6.1758,6.207,6.3125,6.4375,6.4687,6.5742,6.6836,6.6523,6.664,6.6836,6.6523,6.668,6.6914,6.6914,6.7344,6.7812,6.8125,6.9258,7.0312,7.0625,7.1406,7.1992,7.1992,7.1992,7.1992,7.1992,7.1992,7.1992,7.1992,7.1992,7.1992,7.1992,7.1992,7.1992,7.1992,7.1992,7.1992,7.1992,7.1992,7.1992,7.1992,7.1951,7.1997,7.2128,7.1815,7.1933,7.2607,7.1717,7.1601,7.2104,7.1562,7.1601]}]]